Wetterdaten: Donnerstag, 08.01.2026
Datum Zeit Temp. Aussen Temp. o. S. Temp +5cm Feuchte Auss Luftdruck Regen Sonnenschein Regendauer Solar Windböen Empfang
08.01.2026 00:00 0,8 °C 0,6 °C -3,9 °C 94 % 1006,6 hPa 0,0 l/m² 0 min 0 min 0 W/m² 25,7 km/h (4 Bft) 100,00 %
08.01.2026 00:02 0,8 °C 0,6 °C -3,9 °C 94 % 1006,5 hPa 0,0 l/m² 0 min 0 min 0 W/m² 12,9 km/h (3 Bft) 11,76 %
08.01.2026 00:04 0,8 °C 0,6 °C -3,3 °C 94 % 1006,5 hPa 0,0 l/m² 0 min 0 min 0 W/m² 19,3 km/h (3 Bft) 76,19 %
08.01.2026 00:07 0,8 °C 0,6 °C -3,3 °C 94 % 1006,5 hPa 0,0 l/m² 0 min 0 min 0 W/m² 22,5 km/h (4 Bft) 76,19 %
08.01.2026 00:08 0,8 °C 0,6 °C -3,3 °C 94 % 1006,5 hPa 0,0 l/m² 0 min 0 min 0 W/m² 22,5 km/h (4 Bft) 100,00 %
08.01.2026 00:12 0,8 °C 0,6 °C -3,3 °C 94 % 1006,5 hPa 0,0 l/m² 0 min 0 min 0 W/m² 12,9 km/h (3 Bft) 100,00 %
08.01.2026 00:14 0,9 °C 0,6 °C -3,3 °C 94 % 1006,4 hPa 0,0 l/m² 0 min 0 min 0 W/m² 16,1 km/h (3 Bft) 100,00 %
08.01.2026 00:16 0,8 °C 0,6 °C -3,9 °C 94 % 1006,4 hPa 0,0 l/m² 0 min 0 min 0 W/m² 16,1 km/h (3 Bft) 100,00 %
08.01.2026 00:18 0,8 °C 0,6 °C -3,9 °C 94 % 1006,4 hPa 0,0 l/m² 0 min 0 min 0 W/m² 16,1 km/h (3 Bft) 98,15 %
08.01.2026 00:20 0,9 °C 0,6 °C -3,9 °C 94 % 1006,3 hPa 0,0 l/m² 0 min 0 min 0 W/m² 19,3 km/h (3 Bft) 97,50 %
08.01.2026 00:22 0,9 °C 0,6 °C -3,9 °C 94 % 1006,3 hPa 0,0 l/m² 0 min 0 min 0 W/m² 9,7 km/h (2 Bft) 100,00 %
08.01.2026 00:24 0,9 °C 0,6 °C -3,9 °C 94 % 1006,3 hPa 0,0 l/m² 0 min 0 min 0 W/m² 12,9 km/h (3 Bft) 97,30 %
08.01.2026 00:26 0,9 °C 0,6 °C -3,9 °C 94 % 1006,4 hPa 0,0 l/m² 0 min 0 min 0 W/m² 3,2 km/h (1 Bft) 100,00 %
08.01.2026 00:28 0,9 °C 0,6 °C -3,3 °C 94 % 1006,4 hPa 0,0 l/m² 0 min 0 min 0 W/m² 12,9 km/h (3 Bft) 100,00 %
08.01.2026 00:30 0,9 °C 0,6 °C -3,9 °C 94 % 1006,4 hPa 0,0 l/m² 0 min 0 min 0 W/m² 6,4 km/h (2 Bft) 98,21 %
08.01.2026 00:32 0,9 °C 0,6 °C -3,3 °C 94 % 1006,4 hPa 0,0 l/m² 0 min 0 min 0 W/m² 12,9 km/h (3 Bft) 97,37 %
08.01.2026 00:34 0,9 °C 0,6 °C -3,9 °C 94 % 1006,5 hPa 0,0 l/m² 0 min 0 min 0 W/m² 16,1 km/h (3 Bft) 100,00 %
08.01.2026 00:36 0,9 °C 0,6 °C -3,9 °C 94 % 1006,4 hPa 0,0 l/m² 0 min 0 min 0 W/m² 6,4 km/h (2 Bft) 95,74 %
08.01.2026 00:38 0,9 °C 0,6 °C -3,3 °C 94 % 1006,5 hPa 0,0 l/m² 0 min 0 min 0 W/m² 12,9 km/h (3 Bft) 100,00 %
08.01.2026 00:40 0,9 °C 0,6 °C -3,3 °C 94 % 1006,5 hPa 0,0 l/m² 0 min 0 min 0 W/m² 6,4 km/h (2 Bft) 96,30 %
08.01.2026 00:45 0,9 °C 0,6 °C -3,9 °C 94 % 1006,3 hPa 0,0 l/m² 0 min 0 min 0 W/m² 16,1 km/h (3 Bft) 92,73 %
08.01.2026 00:48 0,9 °C 0,6 °C -3,3 °C 94 % 1006,3 hPa 0,0 l/m² 0 min 0 min 0 W/m² 16,1 km/h (3 Bft) 95,00 %
08.01.2026 00:50 0,9 °C 0,6 °C -3,3 °C 94 % 1006,3 hPa 0,0 l/m² 0 min 0 min 0 W/m² 19,3 km/h (3 Bft) 97,73 %
08.01.2026 00:52 1,0 °C 0,6 °C -3,3 °C 94 % 1006,3 hPa 0,0 l/m² 0 min 0 min 0 W/m² 16,1 km/h (3 Bft) 97,50 %
08.01.2026 00:54 1,0 °C 0,6 °C -3,3 °C 94 % 1006,4 hPa 0,0 l/m² 0 min 0 min 0 W/m² 19,3 km/h (3 Bft) 96,30 %
08.01.2026 00:56 1,0 °C 0,6 °C -3,3 °C 94 % 1006,4 hPa 0,0 l/m² 0 min 0 min 0 W/m² 19,3 km/h (3 Bft) 97,50 %
08.01.2026 00:58 1,0 °C 0,6 °C -3,3 °C 94 % 1006,4 hPa 0,0 l/m² 0 min 0 min 0 W/m² 22,5 km/h (4 Bft) 96,36 %
08.01.2026 01:00 1,0 °C 0,6 °C -3,3 °C 94 % 1006,4 hPa 0,0 l/m² 0 min 0 min 0 W/m² 9,7 km/h (2 Bft) 97,37 %
08.01.2026 01:02 1,0 °C 0,6 °C -3,3 °C 94 % 1006,4 hPa 0,0 l/m² 0 min 0 min 0 W/m² 12,9 km/h (3 Bft) 93,62 %
08.01.2026 01:04 1,0 °C 0,6 °C -3,3 °C 94 % 1006,3 hPa 0,0 l/m² 0 min 0 min 0 W/m² 16,1 km/h (3 Bft) 100,00 %
08.01.2026 01:06 1,0 °C 0,6 °C -3,3 °C 94 % 1006,3 hPa 0,0 l/m² 0 min 0 min 0 W/m² 12,9 km/h (3 Bft) 94,87 %
08.01.2026 01:08 1,1 °C 0,6 °C -3,3 °C 94 % 1006,2 hPa 0,0 l/m² 0 min 0 min 0 W/m² 16,1 km/h (3 Bft) 100,00 %
08.01.2026 01:10 1,1 °C 0,6 °C -3,3 °C 94 % 1006,2 hPa 0,0 l/m² 0 min 0 min 0 W/m² 35,4 km/h (5 Bft) 98,15 %
08.01.2026 01:12 1,1 °C 0,6 °C -3,3 °C 94 % 1006,2 hPa 0,0 l/m² 0 min 0 min 0 W/m² 16,1 km/h (3 Bft) 95,00 %
08.01.2026 01:14 1,1 °C 0,6 °C -3,3 °C 94 % 1006,2 hPa 0,0 l/m² 0 min 0 min 0 W/m² 12,9 km/h (3 Bft) 100,00 %
08.01.2026 01:16 1,1 °C 0,6 °C -3,3 °C 94 % 1006,2 hPa 0,0 l/m² 0 min 0 min 0 W/m² 16,1 km/h (3 Bft) 95,00 %
08.01.2026 01:18 1,1 °C 0,6 °C -3,3 °C 94 % 1006,2 hPa 0,0 l/m² 0 min 0 min 0 W/m² 22,5 km/h (4 Bft) 100,00 %
08.01.2026 01:20 1,1 °C 0,6 °C -3,3 °C 94 % 1006,2 hPa 0,0 l/m² 0 min 0 min 0 W/m² 12,9 km/h (3 Bft) 97,50 %
08.01.2026 01:22 1,1 °C 0,6 °C -3,3 °C 94 % 1006,2 hPa 0,0 l/m² 0 min 0 min 0 W/m² 12,9 km/h (3 Bft) 100,00 %
08.01.2026 01:24 1,1 °C 0,6 °C -3,3 °C 94 % 1006,4 hPa 0,0 l/m² 0 min 0 min 0 W/m² 16,1 km/h (3 Bft) 97,92 %
08.01.2026 01:26 1,1 °C 0,6 °C -3,3 °C 94 % 1006,3 hPa 0,0 l/m² 0 min 0 min 0 W/m² 16,1 km/h (3 Bft) 97,37 %
08.01.2026 01:28 1,2 °C 0,6 °C -3,3 °C 94 % 1006,3 hPa 0,0 l/m² 0 min 0 min 0 W/m² 16,1 km/h (3 Bft) 94,74 %
08.01.2026 01:30 1,2 °C 0,6 °C -3,3 °C 94 % 1006,3 hPa 0,0 l/m² 0 min 0 min 0 W/m² 12,9 km/h (3 Bft) 95,65 %
08.01.2026 01:32 1,2 °C 0,6 °C -3,3 °C 93 % 1006,3 hPa 0,0 l/m² 0 min 0 min 0 W/m² 12,9 km/h (3 Bft) 95,74 %
08.01.2026 01:34 1,2 °C 0,6 °C -3,3 °C 93 % 1006,3 hPa 0,0 l/m² 0 min 0 min 0 W/m² 25,7 km/h (4 Bft) 93,62 %
08.01.2026 01:36 1,2 °C 0,6 °C -3,3 °C 93 % 1006,2 hPa 0,0 l/m² 0 min 0 min 0 W/m² 9,7 km/h (2 Bft) 95,74 %
08.01.2026 01:38 1,2 °C 0,6 °C -3,3 °C 93 % 1006,3 hPa 0,0 l/m² 0 min 0 min 0 W/m² 12,9 km/h (3 Bft) 93,33 %
08.01.2026 01:40 1,2 °C 0,6 °C -3,3 °C 93 % 1006,3 hPa 0,0 l/m² 0 min 0 min 0 W/m² 19,3 km/h (3 Bft) 95,74 %
08.01.2026 01:42 1,2 °C 0,6 °C -3,3 °C 93 % 1006,3 hPa 0,0 l/m² 0 min 0 min 0 W/m² 19,3 km/h (3 Bft) 95,00 %
08.01.2026 01:44 1,2 °C 0,6 °C -3,3 °C 93 % 1006,3 hPa 0,0 l/m² 0 min 0 min 0 W/m² 19,3 km/h (3 Bft) 91,49 %
08.01.2026 01:46 1,2 °C 0,6 °C -3,3 °C 93 % 1006,3 hPa 0,0 l/m² 0 min 0 min 0 W/m² 16,1 km/h (3 Bft) 95,65 %
08.01.2026 01:48 1,2 °C 0,6 °C -3,3 °C 93 % 1006,3 hPa 0,0 l/m² 0 min 0 min 0 W/m² 12,9 km/h (3 Bft) 95,74 %
08.01.2026 01:50 1,2 °C 0,6 °C -3,3 °C 93 % 1006,3 hPa 0,0 l/m² 0 min 0 min 0 W/m² 19,3 km/h (3 Bft) 93,62 %
08.01.2026 01:52 1,2 °C 0,6 °C -3,3 °C 93 % 1006,3 hPa 0,0 l/m² 0 min 0 min 0 W/m² 12,9 km/h (3 Bft) 95,74 %
08.01.2026 01:56 1,2 °C 0,6 °C -3,3 °C 93 % 1006,3 hPa 0,0 l/m² 0 min 0 min 0 W/m² 29,0 km/h (5 Bft) 93,48 %
08.01.2026 01:58 1,2 °C 0,6 °C -3,3 °C 93 % 1006,3 hPa 0,0 l/m² 0 min 0 min 0 W/m² 12,9 km/h (3 Bft) 98,25 %
08.01.2026 02:00 1,2 °C 0,6 °C -3,3 °C 93 % 1006,3 hPa 0,0 l/m² 0 min 0 min 0 W/m² 9,7 km/h (2 Bft) 97,83 %
08.01.2026 02:02 1,2 °C 0,6 °C -3,3 °C 93 % 1006,3 hPa 0,0 l/m² 0 min 0 min 0 W/m² 6,4 km/h (2 Bft) 97,78 %
08.01.2026 02:04 1,2 °C 0,6 °C -3,3 °C 93 % 1006,3 hPa 0,0 l/m² 0 min 0 min 0 W/m² 6,4 km/h (2 Bft) 97,67 %
08.01.2026 02:08 1,2 °C 0,6 °C -3,3 °C 93 % 1006,3 hPa 0,0 l/m² 0 min 0 min 0 W/m² 16,1 km/h (3 Bft) 96,77 %
08.01.2026 02:10 1,3 °C 0,6 °C -3,3 °C 93 % 1006,3 hPa 0,0 l/m² 0 min 0 min 0 W/m² 12,9 km/h (3 Bft) 97,83 %
08.01.2026 02:14 1,3 °C 0,6 °C -3,3 °C 93 % 1006,3 hPa 0,0 l/m² 0 min 0 min 0 W/m² 12,9 km/h (3 Bft) 100,00 %
08.01.2026 02:16 1,3 °C 0,6 °C -3,3 °C 93 % 1006,4 hPa 0,0 l/m² 0 min 0 min 0 W/m² 16,1 km/h (3 Bft) 95,74 %
08.01.2026 02:18 1,3 °C 0,6 °C -3,3 °C 93 % 1006,3 hPa 0,0 l/m² 0 min 0 min 0 W/m² 22,5 km/h (4 Bft) 95,74 %
08.01.2026 02:20 1,3 °C 0,6 °C -3,3 °C 93 % 1006,3 hPa 0,0 l/m² 0 min 0 min 0 W/m² 16,1 km/h (3 Bft) 95,65 %
08.01.2026 02:22 1,3 °C 0,6 °C -3,3 °C 93 % 1006,3 hPa 0,0 l/m² 0 min 0 min 0 W/m² 22,5 km/h (4 Bft) 91,30 %
08.01.2026 02:24 1,3 °C 0,6 °C -3,3 °C 93 % 1006,4 hPa 0,0 l/m² 0 min 0 min 0 W/m² 9,7 km/h (2 Bft) 97,78 %
08.01.2026 02:26 1,3 °C 0,6 °C -3,3 °C 93 % 1006,5 hPa 0,0 l/m² 0 min 0 min 0 W/m² 16,1 km/h (3 Bft) 95,74 %
08.01.2026 02:28 1,3 °C 0,6 °C -3,3 °C 93 % 1006,5 hPa 0,0 l/m² 0 min 0 min 0 W/m² 19,3 km/h (3 Bft) 97,83 %
08.01.2026 02:30 1,3 °C 0,6 °C -3,3 °C 93 % 1006,5 hPa 0,0 l/m² 0 min 0 min 0 W/m² 6,4 km/h (2 Bft) 95,92 %
08.01.2026 02:32 1,3 °C 0,6 °C -3,3 °C 93 % 1006,5 hPa 0,0 l/m² 0 min 0 min 0 W/m² 9,7 km/h (2 Bft) 97,96 %
08.01.2026 02:34 1,3 °C 0,6 °C -3,3 °C 93 % 1006,6 hPa 0,0 l/m² 0 min 0 min 0 W/m² 19,3 km/h (3 Bft) 95,24 %
08.01.2026 02:36 1,3 °C 0,6 °C -3,3 °C 93 % 1006,5 hPa 0,0 l/m² 0 min 0 min 0 W/m² 12,9 km/h (3 Bft) 98,04 %
08.01.2026 02:38 1,3 °C 0,6 °C -3,3 °C 93 % 1006,6 hPa 0,0 l/m² 0 min 0 min 0 W/m² 9,7 km/h (2 Bft) 95,45 %
08.01.2026 02:40 1,3 °C 0,6 °C -3,3 °C 93 % 1006,6 hPa 0,0 l/m² 0 min 0 min 0 W/m² 19,3 km/h (3 Bft) 96,00 %
08.01.2026 02:42 1,3 °C 0,6 °C -3,3 °C 93 % 1006,6 hPa 0,0 l/m² 0 min 0 min 0 W/m² 6,4 km/h (2 Bft) 97,67 %
08.01.2026 02:44 1,3 °C 0,6 °C -3,3 °C 93 % 1006,5 hPa 0,0 l/m² 0 min 0 min 0 W/m² 16,1 km/h (3 Bft) 98,04 %
08.01.2026 02:46 1,3 °C 0,6 °C -3,3 °C 93 % 1006,6 hPa 0,0 l/m² 0 min 0 min 0 W/m² 6,4 km/h (2 Bft) 97,67 %
08.01.2026 02:48 1,3 °C 0,6 °C -3,3 °C 93 % 1006,6 hPa 0,0 l/m² 0 min 0 min 0 W/m² 19,3 km/h (3 Bft) 96,00 %
08.01.2026 02:50 1,3 °C 0,6 °C -3,3 °C 93 % 1006,6 hPa 0,0 l/m² 0 min 0 min 0 W/m² 12,9 km/h (3 Bft) 97,73 %
08.01.2026 02:52 1,3 °C 0,6 °C -3,3 °C 93 % 1006,7 hPa 0,0 l/m² 0 min 0 min 0 W/m² 12,9 km/h (3 Bft) 100,00 %
08.01.2026 02:54 1,3 °C 0,6 °C -3,3 °C 93 % 1006,7 hPa 0,0 l/m² 0 min 0 min 0 W/m² 25,7 km/h (4 Bft) 100,00 %
08.01.2026 02:56 1,3 °C 0,6 °C -3,3 °C 93 % 1006,6 hPa 0,0 l/m² 0 min 0 min 0 W/m² 6,4 km/h (2 Bft) 100,00 %
08.01.2026 02:58 1,3 °C 0,6 °C -3,3 °C 93 % 1006,6 hPa 0,0 l/m² 0 min 0 min 0 W/m² 6,4 km/h (2 Bft) 100,00 %
08.01.2026 03:00 1,3 °C 0,6 °C -3,3 °C 93 % 1006,7 hPa 0,0 l/m² 0 min 0 min 0 W/m² 12,9 km/h (3 Bft) 100,00 %
08.01.2026 03:02 1,3 °C 0,6 °C -3,3 °C 93 % 1006,6 hPa 0,0 l/m² 0 min 0 min 0 W/m² 25,7 km/h (4 Bft) 100,00 %
08.01.2026 03:04 1,3 °C 0,6 °C -3,3 °C 93 % 1006,6 hPa 0,0 l/m² 0 min 0 min 0 W/m² 16,1 km/h (3 Bft) 100,00 %
08.01.2026 03:08 1,3 °C 0,6 °C -2,8 °C 93 % 1006,7 hPa 0,0 l/m² 0 min 0 min 0 W/m² 22,5 km/h (4 Bft) 100,00 %
08.01.2026 03:10 1,3 °C 0,6 °C -2,8 °C 93 % 1006,8 hPa 0,0 l/m² 0 min 0 min 0 W/m² 22,5 km/h (4 Bft) 100,00 %
08.01.2026 03:12 1,3 °C 0,6 °C -2,8 °C 93 % 1006,8 hPa 0,0 l/m² 0 min 0 min 0 W/m² 9,7 km/h (2 Bft) 100,00 %
08.01.2026 03:14 1,3 °C 0,6 °C -2,8 °C 93 % 1006,7 hPa 0,0 l/m² 0 min 0 min 0 W/m² 16,1 km/h (3 Bft) 100,00 %
08.01.2026 03:16 1,3 °C 0,6 °C -2,8 °C 93 % 1006,8 hPa 0,0 l/m² 0 min 0 min 0 W/m² 29,0 km/h (5 Bft) 100,00 %
08.01.2026 03:20 1,4 °C 1,1 °C -2,8 °C 93 % 1006,9 hPa 0,0 l/m² 0 min 0 min 0 W/m² 29,0 km/h (5 Bft) 98,96 %
08.01.2026 03:22 1,4 °C 1,1 °C -2,8 °C 93 % 1006,8 hPa 0,0 l/m² 0 min 0 min 0 W/m² 25,7 km/h (4 Bft) 97,14 %
08.01.2026 03:24 1,4 °C 1,1 °C -2,8 °C 93 % 1006,9 hPa 0,0 l/m² 0 min 0 min 0 W/m² 19,3 km/h (3 Bft) 100,00 %
08.01.2026 03:26 1,4 °C 1,1 °C -2,8 °C 93 % 1006,9 hPa 0,0 l/m² 0 min 0 min 0 W/m² 16,1 km/h (3 Bft) 100,00 %
08.01.2026 03:30 1,4 °C 1,1 °C -2,8 °C 93 % 1006,9 hPa 0,0 l/m² 0 min 0 min 0 W/m² 16,1 km/h (3 Bft) 98,11 %
08.01.2026 03:32 1,4 °C 0,6 °C -2,8 °C 93 % 1006,8 hPa 0,0 l/m² 0 min 0 min 0 W/m² 6,4 km/h (2 Bft) 95,74 %
08.01.2026 03:33 1,4 °C 0,6 °C -2,8 °C 93 % 1006,8 hPa 0,0 l/m² 0 min 0 min 0 W/m² 12,9 km/h (3 Bft) 98,03 %
08.01.2026 03:35 1,4 °C 0,6 °C -2,8 °C 93 % 1006,8 hPa 0,0 l/m² 0 min 0 min 0 W/m² 12,9 km/h (3 Bft) 100,00 %
08.01.2026 03:38 1,4 °C 0,6 °C -2,8 °C 93 % 1006,8 hPa 0,0 l/m² 0 min 0 min 0 W/m² 16,1 km/h (3 Bft) 92,50 %
08.01.2026 03:42 1,4 °C 1,1 °C -2,8 °C 93 % 1006,8 hPa 0,0 l/m² 0 min 0 min 0 W/m² 16,1 km/h (3 Bft) 97,87 %
08.01.2026 03:46 1,4 °C 1,1 °C -2,8 °C 93 % 1006,8 hPa 0,0 l/m² 0 min 0 min 0 W/m² 19,3 km/h (3 Bft) 97,87 %
08.01.2026 03:50 1,4 °C 1,1 °C -2,8 °C 93 % 1006,7 hPa 0,0 l/m² 0 min 0 min 0 W/m² 19,3 km/h (3 Bft) 98,00 %
08.01.2026 03:54 1,4 °C 1,1 °C -2,8 °C 93 % 1006,8 hPa 0,0 l/m² 0 min 0 min 0 W/m² 19,3 km/h (3 Bft) 95,88 %
08.01.2026 03:58 1,4 °C 1,1 °C -2,8 °C 93 % 1006,9 hPa 0,0 l/m² 0 min 0 min 0 W/m² 22,5 km/h (4 Bft) 96,84 %
08.01.2026 04:02 1,4 °C 1,1 °C -2,8 °C 92 % 1006,8 hPa 0,0 l/m² 0 min 0 min 0 W/m² 25,7 km/h (4 Bft) 96,34 %
08.01.2026 04:06 1,4 °C 1,1 °C -2,8 °C 92 % 1006,8 hPa 0,0 l/m² 0 min 0 min 0 W/m² 29,0 km/h (5 Bft) 96,33 %
08.01.2026 04:10 1,4 °C 1,1 °C -2,8 °C 92 % 1006,8 hPa 0,0 l/m² 0 min 0 min 0 W/m² 29,0 km/h (5 Bft) 96,55 %
08.01.2026 04:14 1,5 °C 1,1 °C -2,8 °C 92 % 1006,9 hPa 0,0 l/m² 0 min 0 min 0 W/m² 22,5 km/h (4 Bft) 97,87 %
08.01.2026 04:18 1,5 °C 1,1 °C -2,8 °C 92 % 1006,8 hPa 0,0 l/m² 0 min 0 min 0 W/m² 19,3 km/h (3 Bft) 97,75 %
08.01.2026 04:22 1,4 °C 1,1 °C -2,8 °C 92 % 1006,8 hPa 0,0 l/m² 0 min 0 min 0 W/m² 16,1 km/h (3 Bft) 96,81 %
08.01.2026 04:26 1,4 °C 1,1 °C -2,8 °C 92 % 1006,8 hPa 0,0 l/m² 0 min 0 min 0 W/m² 22,5 km/h (4 Bft) 96,77 %
08.01.2026 04:30 1,4 °C 1,1 °C -2,8 °C 92 % 1006,9 hPa 0,0 l/m² 0 min 0 min 0 W/m² 19,3 km/h (3 Bft) 97,92 %
08.01.2026 04:34 1,4 °C 0,6 °C -2,8 °C 92 % 1006,9 hPa 0,0 l/m² 0 min 0 min 0 W/m² 19,3 km/h (3 Bft) 96,84 %
08.01.2026 04:38 1,4 °C 0,6 °C -2,8 °C 92 % 1007,0 hPa 0,0 l/m² 0 min 0 min 0 W/m² 19,3 km/h (3 Bft) 98,95 %
08.01.2026 04:42 1,3 °C 0,6 °C -2,8 °C 92 % 1007,0 hPa 0,0 l/m² 0 min 0 min 0 W/m² 22,5 km/h (4 Bft) 77,78 %
08.01.2026 04:44 1,3 °C 0,6 °C -2,8 °C 92 % 1007,0 hPa 0,0 l/m² 0 min 0 min 0 W/m² 25,7 km/h (4 Bft) 97,96 %
08.01.2026 04:46 1,3 °C 0,6 °C -2,8 °C 92 % 1007,0 hPa 0,0 l/m² 0 min 0 min 0 W/m² 19,3 km/h (3 Bft) 100,00 %
08.01.2026 04:48 1,3 °C 0,6 °C -2,8 °C 92 % 1007,0 hPa 0,0 l/m² 0 min 0 min 0 W/m² 32,2 km/h (5 Bft) 100,00 %
08.01.2026 04:50 1,3 °C 0,6 °C -2,8 °C 92 % 1006,9 hPa 0,0 l/m² 0 min 0 min 0 W/m² 25,7 km/h (4 Bft) 100,00 %
08.01.2026 04:52 1,3 °C 0,6 °C -2,8 °C 92 % 1006,9 hPa 0,0 l/m² 0 min 0 min 0 W/m² 16,1 km/h (3 Bft) 97,87 %
08.01.2026 04:54 1,3 °C 0,6 °C -2,8 °C 92 % 1006,9 hPa 0,0 l/m² 0 min 0 min 0 W/m² 25,7 km/h (4 Bft) 97,87 %
08.01.2026 04:56 1,3 °C 0,6 °C -2,8 °C 92 % 1007,0 hPa 0,0 l/m² 0 min 0 min 0 W/m² 19,3 km/h (3 Bft) 97,87 %
08.01.2026 04:58 1,3 °C 0,6 °C -3,3 °C 92 % 1006,9 hPa 0,0 l/m² 0 min 0 min 0 W/m² 19,3 km/h (3 Bft) 97,83 %
08.01.2026 05:00 1,2 °C 0,6 °C -3,3 °C 92 % 1007,0 hPa 0,0 l/m² 0 min 0 min 0 W/m² 16,1 km/h (3 Bft) 97,62 %
08.01.2026 05:02 1,2 °C 0,6 °C -3,3 °C 92 % 1007,0 hPa 0,0 l/m² 0 min 0 min 0 W/m² 16,1 km/h (3 Bft) 97,96 %
08.01.2026 05:06 1,2 °C 0,6 °C -3,3 °C 92 % 1007,0 hPa 0,0 l/m² 0 min 0 min 0 W/m² 16,1 km/h (3 Bft) 97,00 %
08.01.2026 05:08 1,1 °C 0,6 °C -3,3 °C 92 % 1007,1 hPa 0,0 l/m² 0 min 0 min 0 W/m² 16,1 km/h (3 Bft) 95,65 %
08.01.2026 05:09 1,1 °C 0,6 °C -3,3 °C 92 % 1007,1 hPa 0,0 l/m² 0 min 0 min 0 W/m² 9,7 km/h (2 Bft) 97,25 %
08.01.2026 05:10 1,1 °C 0,6 °C -3,3 °C 92 % 1007,1 hPa 0,0 l/m² 0 min 0 min 0 W/m² 25,7 km/h (4 Bft) 99,12 %
08.01.2026 05:14 1,1 °C 0,6 °C -3,3 °C 92 % 1007,1 hPa 0,0 l/m² 0 min 0 min 0 W/m² 12,9 km/h (3 Bft) 97,44 %
08.01.2026 05:18 1,0 °C 0,6 °C -3,3 °C 92 % 1007,1 hPa 0,0 l/m² 0 min 0 min 0 W/m² 16,1 km/h (3 Bft) 98,00 %
08.01.2026 05:26 0,9 °C 0,0 °C -3,3 °C 92 % 1007,2 hPa 0,0 l/m² 0 min 0 min 0 W/m² 25,7 km/h (4 Bft) 100,00 %
08.01.2026 05:32 0,9 °C 0,0 °C -3,3 °C 92 % 1007,1 hPa 0,0 l/m² 0 min 0 min 0 W/m² 12,9 km/h (3 Bft) 96,83 %
08.01.2026 05:36 0,8 °C 0,0 °C -3,3 °C 92 % 1007,1 hPa 0,0 l/m² 0 min 0 min 0 W/m² 16,1 km/h (3 Bft) 97,14 %
08.01.2026 05:38 0,8 °C 0,0 °C -3,3 °C 92 % 1007,1 hPa 0,0 l/m² 0 min 0 min 0 W/m² 12,9 km/h (3 Bft) 97,14 %
08.01.2026 05:40 0,8 °C 0,0 °C -3,3 °C 92 % 1007,2 hPa 0,0 l/m² 0 min 0 min 0 W/m² 16,1 km/h (3 Bft) 96,23 %
08.01.2026 05:42 0,8 °C 0,0 °C -3,3 °C 92 % 1007,1 hPa 0,0 l/m² 0 min 0 min 0 W/m² 25,7 km/h (4 Bft) 98,04 %
08.01.2026 05:46 0,7 °C 0,0 °C -3,3 °C 92 % 1007,1 hPa 0,0 l/m² 0 min 0 min 0 W/m² 12,9 km/h (3 Bft) 93,55 %
08.01.2026 05:48 0,7 °C 0,0 °C -3,3 °C 92 % 1007,1 hPa 0,0 l/m² 0 min 0 min 0 W/m² 9,7 km/h (2 Bft) 94,59 %
08.01.2026 05:50 0,6 °C 0,0 °C -3,3 °C 92 % 1007,1 hPa 0,0 l/m² 0 min 0 min 0 W/m² 12,9 km/h (3 Bft) 90,74 %
08.01.2026 05:52 0,6 °C 0,0 °C -3,3 °C 92 % 1007,1 hPa 0,0 l/m² 0 min 0 min 0 W/m² 16,1 km/h (3 Bft) 90,00 %
08.01.2026 05:54 0,6 °C 0,0 °C -3,3 °C 92 % 1007,1 hPa 0,0 l/m² 0 min 0 min 0 W/m² 9,7 km/h (2 Bft) 95,74 %
08.01.2026 05:56 0,6 °C 0,0 °C -3,3 °C 92 % 1007,2 hPa 0,0 l/m² 0 min 0 min 0 W/m² 6,4 km/h (2 Bft) 95,74 %
08.01.2026 05:58 0,7 °C 0,0 °C -3,3 °C 92 % 1007,1 hPa 0,0 l/m² 0 min 0 min 0 W/m² 22,5 km/h (4 Bft) 94,44 %
08.01.2026 06:00 0,7 °C 0,0 °C -3,3 °C 92 % 1007,1 hPa 0,0 l/m² 0 min 0 min 0 W/m² 19,3 km/h (3 Bft) 94,87 %
08.01.2026 06:02 0,7 °C 0,0 °C -3,3 °C 92 % 1007,1 hPa 0,0 l/m² 0 min 0 min 0 W/m² 9,7 km/h (2 Bft) 91,49 %
08.01.2026 06:04 0,7 °C 0,0 °C -3,3 °C 93 % 1007,1 hPa 0,0 l/m² 0 min 0 min 0 W/m² 12,9 km/h (3 Bft) 94,55 %
08.01.2026 06:08 0,7 °C 0,0 °C -3,3 °C 93 % 1007,1 hPa 0,0 l/m² 0 min 0 min 0 W/m² 16,1 km/h (3 Bft) 94,55 %
08.01.2026 06:10 0,7 °C 0,0 °C -3,3 °C 93 % 1007,1 hPa 0,0 l/m² 0 min 0 min 0 W/m² 16,1 km/h (3 Bft) 94,74 %
08.01.2026 06:12 0,7 °C 0,0 °C -3,3 °C 93 % 1007,1 hPa 0,0 l/m² 0 min 0 min 0 W/m² 12,9 km/h (3 Bft) 96,43 %
08.01.2026 06:16 0,7 °C 0,0 °C -3,3 °C 93 % 1007,0 hPa 0,0 l/m² 0 min 0 min 0 W/m² 12,9 km/h (3 Bft) 91,76 %
08.01.2026 06:18 0,7 °C 0,0 °C -3,3 °C 93 % 1007,1 hPa 0,0 l/m² 0 min 0 min 0 W/m² 16,1 km/h (3 Bft) 96,23 %
08.01.2026 06:20 0,7 °C 0,0 °C -3,3 °C 93 % 1007,0 hPa 0,0 l/m² 0 min 0 min 0 W/m² 9,7 km/h (2 Bft) 100,00 %
08.01.2026 06:24 0,7 °C 0,0 °C -3,3 °C 93 % 1007,1 hPa 0,0 l/m² 0 min 0 min 0 W/m² 9,7 km/h (2 Bft) 98,94 %
08.01.2026 06:26 0,7 °C 0,0 °C -3,3 °C 93 % 1007,1 hPa 0,0 l/m² 0 min 0 min 0 W/m² 9,7 km/h (2 Bft) 100,00 %
08.01.2026 06:28 0,7 °C 0,0 °C -3,3 °C 93 % 1007,1 hPa 0,0 l/m² 0 min 0 min 0 W/m² 12,9 km/h (3 Bft) 100,00 %
08.01.2026 06:30 0,7 °C 0,0 °C -3,3 °C 93 % 1007,0 hPa 0,0 l/m² 0 min 0 min 0 W/m² 12,9 km/h (3 Bft) 100,00 %
08.01.2026 06:34 0,7 °C 0,0 °C -3,3 °C 93 % 1007,1 hPa 0,0 l/m² 0 min 0 min 0 W/m² 12,9 km/h (3 Bft) 100,00 %
08.01.2026 06:36 0,7 °C 0,0 °C -3,3 °C 93 % 1007,0 hPa 0,0 l/m² 0 min 0 min 0 W/m² 12,9 km/h (3 Bft) 100,00 %
08.01.2026 06:38 0,7 °C 0,0 °C -3,3 °C 93 % 1007,0 hPa 0,0 l/m² 0 min 0 min 0 W/m² 12,9 km/h (3 Bft) 100,00 %
08.01.2026 06:40 0,7 °C 0,0 °C -3,3 °C 93 % 1007,0 hPa 0,0 l/m² 0 min 0 min 0 W/m² 9,7 km/h (2 Bft) 97,96 %
08.01.2026 06:42 0,7 °C 0,0 °C -3,3 °C 93 % 1007,0 hPa 0,0 l/m² 0 min 0 min 0 W/m² 12,9 km/h (3 Bft) 100,00 %
08.01.2026 06:44 0,6 °C 0,0 °C -3,3 °C 93 % 1007,0 hPa 0,0 l/m² 0 min 0 min 0 W/m² 16,1 km/h (3 Bft) 100,00 %
08.01.2026 06:46 0,6 °C 0,0 °C -3,3 °C 93 % 1007,0 hPa 0,0 l/m² 0 min 0 min 0 W/m² 9,7 km/h (2 Bft) 100,00 %
08.01.2026 06:48 0,6 °C 0,0 °C -3,3 °C 93 % 1007,0 hPa 0,0 l/m² 0 min 0 min 0 W/m² 3,2 km/h (1 Bft) 100,00 %
08.01.2026 06:50 0,6 °C 0,0 °C -3,3 °C 93 % 1007,0 hPa 0,0 l/m² 0 min 0 min 0 W/m² 3,2 km/h (1 Bft) 100,00 %
08.01.2026 06:52 0,6 °C 0,0 °C -3,3 °C 93 % 1007,1 hPa 0,0 l/m² 0 min 0 min 0 W/m² 3,2 km/h (1 Bft) 71,43 %
08.01.2026 06:54 0,6 °C 0,0 °C -3,3 °C 93 % 1007,1 hPa 0,0 l/m² 0 min 0 min 0 W/m² 12,9 km/h (3 Bft) 76,92 %
08.01.2026 06:56 0,6 °C 0,0 °C -3,3 °C 93 % 1007,0 hPa 0,0 l/m² 0 min 0 min 0 W/m² 9,7 km/h (2 Bft) 100,00 %
08.01.2026 06:58 0,6 °C 0,0 °C -3,3 °C 93 % 1007,1 hPa 0,0 l/m² 0 min 0 min 0 W/m² 12,9 km/h (3 Bft) 100,00 %
08.01.2026 07:00 0,6 °C 0,0 °C -3,3 °C 93 % 1007,1 hPa 0,0 l/m² 0 min 0 min 0 W/m² 6,4 km/h (2 Bft) 100,00 %
08.01.2026 07:02 0,6 °C 0,0 °C -3,3 °C 93 % 1007,1 hPa 0,2 l/m² 0 min 0 min 0 W/m² 3,2 km/h (1 Bft) 100,00 %
08.01.2026 07:04 0,6 °C 0,0 °C -3,3 °C 93 % 1007,1 hPa 0,0 l/m² 0 min 0 min 0 W/m² 6,4 km/h (2 Bft) 100,00 %
08.01.2026 07:08 0,6 °C 0,0 °C -3,3 °C 93 % 1007,0 hPa 0,0 l/m² 0 min 0 min 0 W/m² 16,1 km/h (3 Bft) 98,95 %
08.01.2026 07:10 0,6 °C 0,0 °C -3,3 °C 93 % 1007,1 hPa 0,0 l/m² 0 min 0 min 0 W/m² 6,4 km/h (2 Bft) 100,00 %
08.01.2026 07:14 0,6 °C 0,0 °C -3,3 °C 93 % 1007,1 hPa 0,0 l/m² 0 min 0 min 0 W/m² 12,9 km/h (3 Bft) 97,67 %
08.01.2026 07:18 0,6 °C 0,0 °C -3,3 °C 93 % 1007,2 hPa 0,0 l/m² 0 min 0 min 0 W/m² 9,7 km/h (2 Bft) 97,85 %
08.01.2026 07:20 0,6 °C 0,0 °C -3,3 °C 93 % 1007,1 hPa 0,0 l/m² 0 min 0 min 0 W/m² 3,2 km/h (1 Bft) 100,00 %
08.01.2026 07:22 0,6 °C 0,0 °C -3,3 °C 93 % 1007,1 hPa 0,0 l/m² 0 min 0 min 0 W/m² 6,4 km/h (2 Bft) 100,00 %
08.01.2026 07:24 0,6 °C 0,0 °C -3,3 °C 93 % 1007,2 hPa 0,0 l/m² 0 min 0 min 0 W/m² 3,2 km/h (1 Bft) 97,78 %
08.01.2026 07:26 0,6 °C 0,0 °C -3,3 °C 93 % 1007,2 hPa 0,0 l/m² 0 min 0 min 0 W/m² 3,2 km/h (1 Bft) 100,00 %
08.01.2026 07:28 0,6 °C 0,0 °C -3,3 °C 93 % 1007,2 hPa 0,0 l/m² 0 min 0 min 0 W/m² 3,2 km/h (1 Bft) 96,30 %
08.01.2026 07:32 0,6 °C 0,0 °C -3,3 °C 93 % 1007,3 hPa 0,0 l/m² 0 min 0 min 0 W/m² 6,4 km/h (2 Bft) 97,85 %
08.01.2026 07:36 0,6 °C 0,0 °C -3,3 °C 93 % 1007,3 hPa 0,0 l/m² 0 min 0 min 0 W/m² 9,7 km/h (2 Bft) 98,85 %
08.01.2026 07:40 0,6 °C 0,0 °C -3,3 °C 93 % 1007,2 hPa 0,0 l/m² 0 min 0 min 0 W/m² 6,4 km/h (2 Bft) 97,87 %
08.01.2026 07:42 0,6 °C 0,0 °C -3,3 °C 93 % 1007,3 hPa 0,0 l/m² 0 min 0 min 0 W/m² 6,4 km/h (2 Bft) 100,00 %
08.01.2026 07:43 0,6 °C 0,0 °C -3,3 °C 93 % 1007,3 hPa 0,0 l/m² 0 min 0 min 0 W/m² 9,7 km/h (2 Bft) 100,00 %
08.01.2026 07:45 0,6 °C 0,0 °C -3,3 °C 93 % 1007,4 hPa 0,0 l/m² 0 min 0 min 0 W/m² 9,7 km/h (2 Bft) 100,00 %
08.01.2026 07:48 0,6 °C 0,0 °C -3,3 °C 93 % 1007,3 hPa 0,0 l/m² 0 min 0 min 0 W/m² 3,2 km/h (1 Bft) 94,87 %
08.01.2026 07:52 0,6 °C 0,0 °C -3,3 °C 93 % 1007,4 hPa 0,0 l/m² 0 min 0 min 0 W/m² 6,4 km/h (2 Bft) 97,87 %
08.01.2026 07:56 0,6 °C 0,0 °C -3,3 °C 93 % 1007,4 hPa 0,0 l/m² 0 min 0 min 0 W/m² 3,2 km/h (1 Bft) 94,95 %
08.01.2026 08:00 0,6 °C 0,0 °C -3,3 °C 93 % 1007,3 hPa 0,0 l/m² 0 min 0 min 0 W/m² 6,4 km/h (2 Bft) 90,43 %
08.01.2026 08:04 0,6 °C 0,0 °C -3,3 °C 93 % 1007,3 hPa 0,0 l/m² 0 min 0 min 0 W/m² 6,4 km/h (2 Bft) 93,75 %
08.01.2026 08:07 0,6 °C 0,0 °C -3,3 °C 93 % 1007,3 hPa 0,0 l/m² 0 min 0 min 0 W/m² 6,4 km/h (2 Bft) 95,31 %
08.01.2026 08:08 0,6 °C 0,0 °C -3,3 °C 93 % 1007,3 hPa 0,0 l/m² 0 min 0 min 0 W/m² 3,2 km/h (1 Bft) 100,00 %
08.01.2026 08:10 0,6 °C 0,0 °C -3,3 °C 93 % 1007,3 hPa 0,0 l/m² 0 min 0 min 0 W/m² 6,4 km/h (2 Bft) 99,12 %
08.01.2026 08:14 0,6 °C -0,6 °C -3,9 °C 93 % 1007,3 hPa 0,0 l/m² 0 min 0 min 0 W/m² 0,0 km/h (0 Bft) 96,97 %
08.01.2026 08:18 0,5 °C -0,6 °C -3,9 °C 93 % 1007,3 hPa 0,0 l/m² 0 min 0 min 0 W/m² 3,2 km/h (1 Bft) 96,94 %
08.01.2026 08:20 0,4 °C -0,6 °C -3,9 °C 93 % 1007,4 hPa 0,0 l/m² 0 min 0 min 0 W/m² 3,2 km/h (1 Bft) 95,74 %
08.01.2026 08:22 0,4 °C -0,6 °C -3,9 °C 93 % 1007,4 hPa 0,0 l/m² 0 min 0 min 0 W/m² 3,2 km/h (1 Bft) 95,74 %
08.01.2026 08:24 0,4 °C -0,6 °C -3,9 °C 93 % 1007,4 hPa 0,0 l/m² 0 min 0 min 0 W/m² 3,2 km/h (1 Bft) 95,45 %
08.01.2026 08:26 0,4 °C -0,6 °C -3,9 °C 93 % 1007,4 hPa 0,0 l/m² 0 min 0 min 0 W/m² 3,2 km/h (1 Bft) 95,92 %
08.01.2026 08:28 0,3 °C -0,6 °C -3,9 °C 93 % 1007,5 hPa 0,0 l/m² 0 min 0 min 0 W/m² 3,2 km/h (1 Bft) 95,74 %
08.01.2026 08:30 0,3 °C -1,1 °C -3,9 °C 93 % 1007,5 hPa 0,0 l/m² 0 min 0 min 0 W/m² 6,4 km/h (2 Bft) 93,62 %
08.01.2026 08:34 0,2 °C -1,1 °C -3,9 °C 93 % 1007,5 hPa 0,0 l/m² 0 min 0 min 0 W/m² 6,4 km/h (2 Bft) 93,62 %
08.01.2026 08:38 0,2 °C -1,1 °C -3,9 °C 93 % 1007,5 hPa 0,0 l/m² 0 min 0 min 3 W/m² 6,4 km/h (2 Bft) 97,83 %
08.01.2026 08:40 0,2 °C -1,1 °C -3,9 °C 93 % 1007,5 hPa 0,0 l/m² 0 min 0 min 5 W/m² 3,2 km/h (1 Bft) 95,83 %
08.01.2026 08:42 0,1 °C -1,1 °C -3,9 °C 93 % 1007,6 hPa 0,0 l/m² 0 min 0 min 5 W/m² 3,2 km/h (1 Bft) 97,78 %
08.01.2026 08:46 0,1 °C -1,1 °C -3,9 °C 93 % 1007,5 hPa 0,0 l/m² 0 min 0 min 5 W/m² 3,2 km/h (1 Bft) 96,74 %
08.01.2026 08:50 0,1 °C -1,1 °C -3,9 °C 93 % 1007,5 hPa 0,0 l/m² 0 min 0 min 7 W/m² 3,2 km/h (1 Bft) 96,91 %
08.01.2026 08:52 0,0 °C -1,1 °C -3,9 °C 93 % 1007,5 hPa 0,0 l/m² 0 min 0 min 8 W/m² 6,4 km/h (2 Bft) 97,67 %
08.01.2026 08:54 0,0 °C -1,1 °C -3,9 °C 93 % 1007,4 hPa 0,0 l/m² 0 min 0 min 10 W/m² 6,4 km/h (2 Bft) 98,04 %
08.01.2026 08:56 -0,1 °C -1,1 °C -3,9 °C 93 % 1007,4 hPa 0,0 l/m² 0 min 0 min 12 W/m² 6,4 km/h (2 Bft) 97,87 %
08.01.2026 08:58 -0,1 °C -1,1 °C -3,9 °C 93 % 1007,4 hPa 0,0 l/m² 0 min 0 min 13 W/m² 6,4 km/h (2 Bft) 97,78 %
08.01.2026 09:00 -0,1 °C -1,1 °C -3,9 °C 93 % 1007,5 hPa 0,0 l/m² 0 min 0 min 14 W/m² 3,2 km/h (1 Bft) 95,35 %
08.01.2026 09:04 -0,1 °C -1,1 °C -3,9 °C 93 % 1007,5 hPa 0,0 l/m² 0 min 0 min 16 W/m² 3,2 km/h (1 Bft) 97,83 %
08.01.2026 09:07 -0,1 °C -1,1 °C -3,9 °C 93 % 1007,3 hPa 0,0 l/m² 0 min 0 min 16 W/m² 3,2 km/h (1 Bft) 97,40 %
08.01.2026 09:10 -0,1 °C -1,1 °C -3,9 °C 93 % 1007,3 hPa 0,0 l/m² 0 min 0 min 16 W/m² 3,2 km/h (1 Bft) 99,12 %
08.01.2026 09:14 -0,2 °C -1,1 °C -3,9 °C 93 % 1007,3 hPa 0,0 l/m² 0 min 0 min 16 W/m² 0,0 km/h (0 Bft) 96,67 %
08.01.2026 09:18 -0,2 °C -1,1 °C -3,9 °C 93 % 1007,3 hPa 0,0 l/m² 0 min 0 min 16 W/m² 3,2 km/h (1 Bft) 97,89 %
08.01.2026 09:22 -0,2 °C -1,1 °C -4,4 °C 93 % 1007,3 hPa 0,0 l/m² 0 min 0 min 16 W/m² 3,2 km/h (1 Bft) 96,81 %
08.01.2026 09:26 -0,2 °C -1,1 °C -4,4 °C 93 % 1007,3 hPa 0,0 l/m² 0 min 0 min 19 W/m² 3,2 km/h (1 Bft) 95,10 %
08.01.2026 09:30 -0,3 °C -1,1 °C -3,9 °C 93 % 1007,3 hPa 0,0 l/m² 0 min 0 min 26 W/m² 3,2 km/h (1 Bft) 97,85 %
08.01.2026 09:34 -0,3 °C -1,1 °C -3,9 °C 93 % 1007,3 hPa 0,0 l/m² 0 min 0 min 30 W/m² 3,2 km/h (1 Bft) 95,35 %
08.01.2026 09:36 -0,3 °C -1,1 °C -3,9 °C 93 % 1007,4 hPa 0,0 l/m² 0 min 0 min 35 W/m² 6,4 km/h (2 Bft) 95,74 %
08.01.2026 09:38 -0,3 °C -1,1 °C -3,9 °C 93 % 1007,4 hPa 0,0 l/m² 0 min 0 min 32 W/m² 3,2 km/h (1 Bft) 95,65 %
08.01.2026 09:40 -0,3 °C -1,1 °C -3,9 °C 93 % 1007,5 hPa 0,0 l/m² 0 min 0 min 35 W/m² 3,2 km/h (1 Bft) 97,87 %
08.01.2026 09:42 -0,3 °C -0,6 °C -3,9 °C 94 % 1007,4 hPa 0,0 l/m² 0 min 0 min 39 W/m² 3,2 km/h (1 Bft) 98,00 %
08.01.2026 09:44 -0,3 °C -0,6 °C -3,9 °C 94 % 1007,4 hPa 0,0 l/m² 0 min 0 min 39 W/m² 0,0 km/h (0 Bft) 51,22 %
08.01.2026 09:46 -0,3 °C -0,6 °C -3,9 °C 94 % 1007,4 hPa 0,0 l/m² 0 min 0 min 39 W/m² 6,4 km/h (2 Bft) 97,37 %
08.01.2026 09:48 -0,4 °C -0,6 °C -3,9 °C 94 % 1007,4 hPa 0,0 l/m² 0 min 0 min 45 W/m² 6,4 km/h (2 Bft) 98,28 %
08.01.2026 09:50 -0,4 °C -0,6 °C -3,9 °C 94 % 1007,4 hPa 0,0 l/m² 0 min 0 min 46 W/m² 3,2 km/h (1 Bft) 100,00 %
08.01.2026 09:52 -0,4 °C -0,6 °C -3,9 °C 94 % 1007,4 hPa 0,0 l/m² 0 min 0 min 48 W/m² 3,2 km/h (1 Bft) 100,00 %
08.01.2026 09:56 -0,4 °C -0,6 °C -3,9 °C 94 % 1007,5 hPa 0,0 l/m² 0 min 0 min 55 W/m² 6,4 km/h (2 Bft) 98,82 %
08.01.2026 09:58 -0,4 °C -0,6 °C -3,9 °C 94 % 1007,6 hPa 0,0 l/m² 0 min 0 min 54 W/m² 6,4 km/h (2 Bft) 100,00 %
08.01.2026 10:02 -0,4 °C 0,0 °C -3,9 °C 94 % 1007,7 hPa 0,0 l/m² 0 min 0 min 72 W/m² 3,2 km/h (1 Bft) 100,00 %
08.01.2026 10:04 -0,4 °C 0,0 °C -3,9 °C 94 % 1007,7 hPa 0,0 l/m² 0 min 0 min 72 W/m² 3,2 km/h (1 Bft) 98,31 %
08.01.2026 10:05 -0,4 °C 0,0 °C -3,9 °C 94 % 1007,7 hPa 0,0 l/m² 0 min 0 min 73 W/m² 6,4 km/h (2 Bft) 100,00 %
08.01.2026 10:08 -0,3 °C 0,0 °C -3,3 °C 94 % 1007,7 hPa 0,0 l/m² 0 min 0 min 65 W/m² 3,2 km/h (1 Bft) 100,00 %
08.01.2026 10:10 -0,3 °C 0,0 °C -3,3 °C 94 % 1007,7 hPa 0,0 l/m² 0 min 0 min 67 W/m² 3,2 km/h (1 Bft) 100,00 %
08.01.2026 10:12 -0,3 °C 0,0 °C -3,3 °C 94 % 1007,6 hPa 0,0 l/m² 0 min 0 min 72 W/m² 3,2 km/h (1 Bft) 97,22 %
08.01.2026 10:14 -0,2 °C 0,6 °C -3,3 °C 94 % 1007,6 hPa 0,0 l/m² 0 min 0 min 76 W/m² 3,2 km/h (1 Bft) 98,00 %
08.01.2026 10:16 -0,2 °C 0,6 °C -3,3 °C 94 % 1007,6 hPa 0,0 l/m² 0 min 0 min 84 W/m² 6,4 km/h (2 Bft) 97,87 %
08.01.2026 10:18 -0,2 °C 0,6 °C -3,3 °C 94 % 1007,6 hPa 0,0 l/m² 0 min 0 min 91 W/m² 6,4 km/h (2 Bft) 96,36 %
08.01.2026 10:22 -0,1 °C 0,6 °C -3,3 °C 94 % 1007,5 hPa 0,0 l/m² 0 min 0 min 94 W/m² 6,4 km/h (2 Bft) 97,67 %
08.01.2026 10:26 -0,1 °C 0,6 °C -3,3 °C 94 % 1007,6 hPa 0,0 l/m² 0 min 0 min 79 W/m² 6,4 km/h (2 Bft) 97,85 %
08.01.2026 10:28 0,0 °C 0,6 °C -3,3 °C 94 % 1007,6 hPa 0,0 l/m² 0 min 0 min 76 W/m² 6,4 km/h (2 Bft) 97,73 %
08.01.2026 10:30 0,1 °C 0,6 °C -3,3 °C 94 % 1007,5 hPa 0,0 l/m² 0 min 0 min 72 W/m² 9,7 km/h (2 Bft) 98,00 %
08.01.2026 10:32 0,1 °C 0,6 °C -3,3 °C 94 % 1007,5 hPa 0,0 l/m² 0 min 0 min 69 W/m² 6,4 km/h (2 Bft) 93,48 %
08.01.2026 10:34 0,1 °C 0,6 °C -3,3 °C 94 % 1007,4 hPa 0,0 l/m² 0 min 0 min 70 W/m² 6,4 km/h (2 Bft) 95,74 %
08.01.2026 10:36 0,1 °C 0,6 °C -3,3 °C 94 % 1007,4 hPa 0,0 l/m² 0 min 0 min 76 W/m² 3,2 km/h (1 Bft) 97,87 %
08.01.2026 10:38 0,2 °C 0,6 °C -2,8 °C 94 % 1007,4 hPa 0,0 l/m² 0 min 0 min 85 W/m² 3,2 km/h (1 Bft) 97,87 %
08.01.2026 10:40 0,2 °C 0,6 °C -2,8 °C 94 % 1007,4 hPa 0,0 l/m² 0 min 0 min 91 W/m² 12,9 km/h (3 Bft) 97,87 %
08.01.2026 10:42 0,2 °C 0,6 °C -2,8 °C 95 % 1007,4 hPa 0,0 l/m² 0 min 0 min 90 W/m² 3,2 km/h (1 Bft) 97,87 %
08.01.2026 10:44 0,2 °C 0,6 °C -2,8 °C 95 % 1007,3 hPa 0,0 l/m² 0 min 0 min 85 W/m² 12,9 km/h (3 Bft) 97,87 %
08.01.2026 10:46 0,2 °C 0,6 °C -2,8 °C 95 % 1007,4 hPa 0,0 l/m² 0 min 0 min 82 W/m² 3,2 km/h (1 Bft) 97,83 %
08.01.2026 10:48 0,3 °C 0,6 °C -2,8 °C 95 % 1007,4 hPa 0,0 l/m² 0 min 0 min 81 W/m² 6,4 km/h (2 Bft) 97,87 %
08.01.2026 10:50 0,3 °C 0,6 °C -2,8 °C 95 % 1007,5 hPa 0,0 l/m² 0 min 0 min 81 W/m² 6,4 km/h (2 Bft) 93,62 %
08.01.2026 10:52 0,3 °C 0,6 °C -2,8 °C 95 % 1007,5 hPa 0,0 l/m² 0 min 0 min 83 W/m² 9,7 km/h (2 Bft) 95,74 %
08.01.2026 10:54 0,3 °C 0,6 °C -2,8 °C 95 % 1007,6 hPa 0,0 l/m² 0 min 0 min 88 W/m² 9,7 km/h (2 Bft) 100,00 %
08.01.2026 10:56 0,3 °C 1,1 °C -2,8 °C 95 % 1007,6 hPa 0,0 l/m² 0 min 0 min 98 W/m² 3,2 km/h (1 Bft) 97,87 %
08.01.2026 10:58 0,4 °C 1,1 °C -2,8 °C 95 % 1007,6 hPa 0,0 l/m² 0 min 0 min 102 W/m² 12,9 km/h (3 Bft) 100,00 %
08.01.2026 11:00 0,4 °C 1,1 °C -2,8 °C 95 % 1007,6 hPa 0,0 l/m² 0 min 0 min 106 W/m² 6,4 km/h (2 Bft) 100,00 %
08.01.2026 11:02 0,4 °C 1,1 °C -2,8 °C 95 % 1007,6 hPa 0,0 l/m² 0 min 0 min 112 W/m² 12,9 km/h (3 Bft) 100,00 %
08.01.2026 11:04 0,5 °C 1,1 °C -2,2 °C 95 % 1007,6 hPa 0,0 l/m² 0 min 0 min 115 W/m² 12,9 km/h (3 Bft) 100,00 %
08.01.2026 11:08 0,6 °C 1,1 °C -2,2 °C 95 % 1007,5 hPa 0,0 l/m² 0 min 0 min 111 W/m² 6,4 km/h (2 Bft) 97,85 %
08.01.2026 11:10 0,6 °C 1,1 °C -2,2 °C 95 % 1007,6 hPa 0,0 l/m² 0 min 0 min 115 W/m² 12,9 km/h (3 Bft) 97,44 %
08.01.2026 11:12 0,6 °C 1,1 °C -2,2 °C 95 % 1007,5 hPa 0,0 l/m² 0 min 0 min 116 W/m² 12,9 km/h (3 Bft) 97,73 %
08.01.2026 11:14 0,6 °C 1,1 °C -2,2 °C 95 % 1007,5 hPa 0,0 l/m² 0 min 0 min 110 W/m² 6,4 km/h (2 Bft) 98,00 %
08.01.2026 11:16 0,6 °C 1,1 °C -2,2 °C 95 % 1007,5 hPa 0,0 l/m² 0 min 0 min 104 W/m² 6,4 km/h (2 Bft) 97,83 %
08.01.2026 11:18 0,6 °C 1,7 °C -2,2 °C 95 % 1007,5 hPa 0,0 l/m² 0 min 0 min 111 W/m² 12,9 km/h (3 Bft) 97,92 %
08.01.2026 11:20 0,7 °C 1,7 °C -2,2 °C 95 % 1007,5 hPa 0,0 l/m² 0 min 0 min 110 W/m² 6,4 km/h (2 Bft) 97,87 %
08.01.2026 11:24 0,7 °C 1,7 °C -2,2 °C 95 % 1007,4 hPa 0,0 l/m² 0 min 0 min 111 W/m² 6,4 km/h (2 Bft) 97,85 %
08.01.2026 11:26 0,7 °C 1,7 °C -2,2 °C 95 % 1007,3 hPa 0,0 l/m² 0 min 0 min 111 W/m² 3,2 km/h (1 Bft) 97,87 %
08.01.2026 11:28 0,8 °C 1,7 °C -2,2 °C 94 % 1007,3 hPa 0,0 l/m² 0 min 0 min 108 W/m² 6,4 km/h (2 Bft) 95,74 %
08.01.2026 11:32 0,8 °C 1,7 °C -2,2 °C 95 % 1007,2 hPa 0,0 l/m² 0 min 0 min 129 W/m² 6,4 km/h (2 Bft) 96,81 %
08.01.2026 11:36 0,9 °C 1,7 °C -1,7 °C 95 % 1007,2 hPa 0,0 l/m² 0 min 0 min 142 W/m² 12,9 km/h (3 Bft) 95,00 %
08.01.2026 11:38 0,9 °C 1,7 °C -1,7 °C 95 % 1007,1 hPa 0,0 l/m² 0 min 0 min 114 W/m² 3,2 km/h (1 Bft) 96,83 %
08.01.2026 11:39 1,0 °C 1,7 °C -1,7 °C 94 % 1007,1 hPa 0,0 l/m² 0 min 0 min 110 W/m² 3,2 km/h (1 Bft) 97,33 %
08.01.2026 11:40 1,0 °C 1,7 °C -1,7 °C 94 % 1007,1 hPa 0,0 l/m² 0 min 0 min 118 W/m² 12,9 km/h (3 Bft) 99,12 %
08.01.2026 11:44 1,1 °C 1,7 °C -1,7 °C 94 % 1007,1 hPa 0,0 l/m² 0 min 0 min 113 W/m² 3,2 km/h (1 Bft) 93,18 %
08.01.2026 11:48 1,1 °C 1,7 °C -1,7 °C 94 % 1007,0 hPa 0,0 l/m² 0 min 0 min 94 W/m² 6,4 km/h (2 Bft) 97,92 %
08.01.2026 11:50 1,1 °C 1,7 °C -1,7 °C 94 % 1007,0 hPa 0,0 l/m² 0 min 0 min 98 W/m² 9,7 km/h (2 Bft) 96,30 %
08.01.2026 11:52 1,1 °C 1,7 °C -1,7 °C 94 % 1007,0 hPa 0,0 l/m² 0 min 0 min 104 W/m² 3,2 km/h (1 Bft) 96,83 %
08.01.2026 11:56 1,2 °C 1,7 °C -1,7 °C 94 % 1007,0 hPa 0,0 l/m² 0 min 0 min 122 W/m² 3,2 km/h (1 Bft) 96,84 %
08.01.2026 12:00 1,3 °C 2,2 °C -1,7 °C 94 % 1007,0 hPa 0,0 l/m² 0 min 0 min 141 W/m² 6,4 km/h (2 Bft) 96,06 %
08.01.2026 12:04 1,3 °C 2,2 °C -1,7 °C 94 % 1006,9 hPa 0,0 l/m² 0 min 0 min 128 W/m² 12,9 km/h (3 Bft) 96,81 %
08.01.2026 12:07 1,3 °C 2,2 °C -1,7 °C 94 % 1006,9 hPa 0,0 l/m² 0 min 0 min 119 W/m² 9,7 km/h (2 Bft) 98,63 %
08.01.2026 12:08 1,4 °C 2,2 °C -1,7 °C 94 % 1007,0 hPa 0,0 l/m² 0 min 0 min 123 W/m² 3,2 km/h (1 Bft) 98,63 %
08.01.2026 12:12 1,4 °C 2,2 °C -1,7 °C 94 % 1007,0 hPa 0,0 l/m² 0 min 0 min 123 W/m² 6,4 km/h (2 Bft) 97,44 %
08.01.2026 12:18 1,6 °C 2,8 °C -1,7 °C 94 % 1006,9 hPa 0,2 l/m² 0 min 0 min 136 W/m² 6,4 km/h (2 Bft) 97,16 %
08.01.2026 12:20 1,6 °C 2,8 °C -1,1 °C 94 % 1006,9 hPa 0,0 l/m² 0 min 0 min 142 W/m² 3,2 km/h (1 Bft) 96,86 %
08.01.2026 12:21 1,6 °C 2,8 °C -1,1 °C 94 % 1006,9 hPa 0,0 l/m² 0 min 0 min 144 W/m² 0,0 km/h (0 Bft) 96,86 %
08.01.2026 12:26 1,7 °C 3,3 °C -1,1 °C 94 % 1006,9 hPa 0,0 l/m² 0 min 0 min 146 W/m² 6,4 km/h (2 Bft) 100,00 %
08.01.2026 12:30 1,8 °C 3,3 °C -1,1 °C 93 % 1006,9 hPa 0,0 l/m² 0 min 0 min 149 W/m² 3,2 km/h (1 Bft) 99,25 %
08.01.2026 12:34 1,9 °C 3,3 °C -1,1 °C 93 % 1006,9 hPa 0,0 l/m² 0 min 0 min 137 W/m² 0,0 km/h (0 Bft) 96,77 %
08.01.2026 12:38 2,0 °C 3,3 °C -1,1 °C 93 % 1006,9 hPa 0,0 l/m² 0 min 0 min 120 W/m² 0,0 km/h (0 Bft) 98,89 %
08.01.2026 12:42 2,1 °C 3,3 °C -1,1 °C 93 % 1006,8 hPa 0,2 l/m² 0 min 0 min 121 W/m² 0,0 km/h (0 Bft) 98,95 %
08.01.2026 12:46 2,2 °C 3,3 °C -1,1 °C 93 % 1006,8 hPa 0,0 l/m² 0 min 0 min 125 W/m² 0,0 km/h (0 Bft) 98,96 %
08.01.2026 12:50 2,3 °C 3,3 °C -1,1 °C 93 % 1006,7 hPa 0,0 l/m² 0 min 0 min 107 W/m² 0,0 km/h (0 Bft) 97,87 %
08.01.2026 12:54 2,3 °C 3,3 °C -1,1 °C 93 % 1006,6 hPa 0,2 l/m² 0 min 0 min 102 W/m² 0,0 km/h (0 Bft) 96,70 %
08.01.2026 12:56 2,4 °C 3,3 °C -1,1 °C 93 % 1006,7 hPa 0,0 l/m² 0 min 0 min 104 W/m² 0,0 km/h (0 Bft) 97,96 %
08.01.2026 13:00 2,4 °C 2,8 °C -1,1 °C 93 % 1006,6 hPa 0,0 l/m² 0 min 0 min 95 W/m² 0,0 km/h (0 Bft) 97,87 %
08.01.2026 13:04 2,4 °C 2,8 °C -1,1 °C 92 % 1006,5 hPa 0,0 l/m² 0 min 0 min 92 W/m² 0,0 km/h (0 Bft) 97,80 %
08.01.2026 13:07 2,5 °C 2,8 °C -1,1 °C 92 % 1006,5 hPa 0,0 l/m² 0 min 0 min 103 W/m² 0,0 km/h (0 Bft) 96,00 %
08.01.2026 13:08 2,5 °C 2,8 °C -1,1 °C 92 % 1006,5 hPa 0,0 l/m² 0 min 0 min 107 W/m² 0,0 km/h (0 Bft) 97,00 %
08.01.2026 13:10 2,5 °C 3,3 °C -1,1 °C 92 % 1006,5 hPa 0,2 l/m² 0 min 0 min 107 W/m² 0,0 km/h (0 Bft) 96,49 %
08.01.2026 13:14 2,6 °C 3,3 °C -1,1 °C 92 % 1006,4 hPa 0,0 l/m² 0 min 0 min 118 W/m² 0,0 km/h (0 Bft) 93,85 %
08.01.2026 13:18 2,6 °C 3,3 °C -1,1 °C 92 % 1006,3 hPa 0,0 l/m² 0 min 0 min 123 W/m² 0,0 km/h (0 Bft) 93,90 %
08.01.2026 13:22 2,6 °C 3,3 °C -1,1 °C 92 % 1006,3 hPa 0,2 l/m² 0 min 0 min 87 W/m² 0,0 km/h (0 Bft) 94,29 %
08.01.2026 13:24 2,6 °C 2,8 °C -1,1 °C 92 % 1006,2 hPa 0,0 l/m² 0 min 0 min 105 W/m² 0,0 km/h (0 Bft) 95,74 %
08.01.2026 13:26 2,6 °C 3,3 °C -1,1 °C 92 % 1006,2 hPa 0,0 l/m² 0 min 0 min 117 W/m² 0,0 km/h (0 Bft) 94,29 %
08.01.2026 13:28 2,6 °C 3,3 °C -1,1 °C 92 % 1006,1 hPa 0,0 l/m² 0 min 0 min 137 W/m² 0,0 km/h (0 Bft) 96,36 %
08.01.2026 13:30 2,6 °C 3,3 °C -1,1 °C 91 % 1006,1 hPa 0,0 l/m² 0 min 0 min 131 W/m² 0,0 km/h (0 Bft) 94,87 %
08.01.2026 13:32 2,7 °C 3,3 °C -1,1 °C 91 % 1006,1 hPa 0,0 l/m² 0 min 0 min 121 W/m² 0,0 km/h (0 Bft) 95,74 %
08.01.2026 13:34 2,7 °C 3,3 °C -1,1 °C 91 % 1006,1 hPa 0,0 l/m² 0 min 0 min 123 W/m² 0,0 km/h (0 Bft) 94,83 %
08.01.2026 13:36 2,7 °C 3,3 °C -1,1 °C 91 % 1006,1 hPa 0,0 l/m² 0 min 0 min 116 W/m² 0,0 km/h (0 Bft) 97,62 %
08.01.2026 13:38 2,7 °C 3,3 °C -1,1 °C 91 % 1006,1 hPa 0,0 l/m² 0 min 0 min 126 W/m² 0,0 km/h (0 Bft) 98,08 %
08.01.2026 13:40 2,7 °C 3,3 °C -0,6 °C 91 % 1006,1 hPa 0,0 l/m² 0 min 0 min 138 W/m² 0,0 km/h (0 Bft) 94,29 %
08.01.2026 13:42 2,7 °C 3,9 °C -0,6 °C 91 % 1006,0 hPa 0,2 l/m² 2 min 0 min 160 W/m² 0,0 km/h (0 Bft) 100,00 %
08.01.2026 13:44 2,8 °C 3,9 °C -0,6 °C 91 % 1006,0 hPa 0,0 l/m² 2 min 0 min 158 W/m² 0,0 km/h (0 Bft) 100,00 %
08.01.2026 13:46 2,8 °C 3,9 °C -0,6 °C 91 % 1006,0 hPa 0,0 l/m² 0 min 0 min 141 W/m² 0,0 km/h (0 Bft) 100,00 %
08.01.2026 13:48 2,8 °C 3,9 °C -0,6 °C 91 % 1006,0 hPa 0,0 l/m² 2 min 0 min 155 W/m² 0,0 km/h (0 Bft) 98,04 %
08.01.2026 13:50 2,8 °C 3,9 °C -0,6 °C 91 % 1006,0 hPa 0,0 l/m² 2 min 0 min 166 W/m² 3,2 km/h (1 Bft) 97,87 %
08.01.2026 13:52 2,8 °C 3,9 °C -0,6 °C 91 % 1006,0 hPa 0,0 l/m² 2 min 0 min 170 W/m² 0,0 km/h (0 Bft) 100,00 %
08.01.2026 13:54 2,8 °C 3,9 °C -0,6 °C 91 % 1006,0 hPa 0,0 l/m² 0 min 0 min 134 W/m² 0,0 km/h (0 Bft) 100,00 %
08.01.2026 13:56 2,9 °C 3,9 °C -0,6 °C 91 % 1006,0 hPa 0,2 l/m² 0 min 0 min 106 W/m² 0,0 km/h (0 Bft) 97,87 %
08.01.2026 13:58 2,9 °C 3,3 °C -0,6 °C 91 % 1006,0 hPa 0,0 l/m² 0 min 0 min 110 W/m² 0,0 km/h (0 Bft) 100,00 %
08.01.2026 14:00 2,9 °C 3,3 °C -0,6 °C 91 % 1006,0 hPa 0,0 l/m² 0 min 0 min 94 W/m² 0,0 km/h (0 Bft) 100,00 %
08.01.2026 14:02 2,9 °C 3,3 °C -0,6 °C 91 % 1006,0 hPa 0,0 l/m² 0 min 0 min 89 W/m² 0,0 km/h (0 Bft) 97,87 %
08.01.2026 14:04 2,9 °C 3,3 °C -0,6 °C 91 % 1006,0 hPa 0,0 l/m² 0 min 0 min 72 W/m² 0,0 km/h (0 Bft) 100,00 %
08.01.2026 14:08 2,9 °C 2,8 °C -0,6 °C 91 % 1005,9 hPa 0,0 l/m² 0 min 0 min 76 W/m² 3,2 km/h (1 Bft) 100,00 %
08.01.2026 14:10 2,9 °C 2,8 °C -1,1 °C 91 % 1005,9 hPa 0,0 l/m² 0 min 0 min 83 W/m² 3,2 km/h (1 Bft) 100,00 %
08.01.2026 14:12 2,9 °C 2,8 °C -1,1 °C 91 % 1005,9 hPa 0,0 l/m² 0 min 0 min 85 W/m² 3,2 km/h (1 Bft) 97,22 %
08.01.2026 14:14 2,9 °C 2,8 °C -1,1 °C 91 % 1005,8 hPa 0,0 l/m² 0 min 0 min 88 W/m² 3,2 km/h (1 Bft) 100,00 %
08.01.2026 14:16 2,9 °C 2,8 °C -1,1 °C 90 % 1005,9 hPa 0,2 l/m² 0 min 0 min 88 W/m² 0,0 km/h (0 Bft) 97,78 %
08.01.2026 14:18 2,9 °C 2,8 °C -1,1 °C 90 % 1005,9 hPa 0,0 l/m² 0 min 0 min 93 W/m² 3,2 km/h (1 Bft) 97,30 %
08.01.2026 14:21 2,9 °C 3,3 °C -1,1 °C 90 % 1005,9 hPa 0,0 l/m² 0 min 0 min 88 W/m² 3,2 km/h (1 Bft) 97,53 %
08.01.2026 14:22 3,0 °C 3,3 °C -1,1 °C 90 % 1005,9 hPa 0,0 l/m² 0 min 0 min 90 W/m² 0,0 km/h (0 Bft) 95,24 %
08.01.2026 14:26 3,0 °C 3,3 °C -0,6 °C 90 % 1005,8 hPa 0,0 l/m² 0 min 0 min 91 W/m² 0,0 km/h (0 Bft) 96,61 %
08.01.2026 14:28 3,0 °C 3,3 °C -0,6 °C 90 % 1005,8 hPa 0,0 l/m² 0 min 0 min 92 W/m² 0,0 km/h (0 Bft) 95,56 %
08.01.2026 14:30 3,0 °C 3,3 °C -0,6 °C 90 % 1005,7 hPa 0,0 l/m² 0 min 0 min 89 W/m² 0,0 km/h (0 Bft) 97,73 %
08.01.2026 14:32 3,0 °C 3,3 °C -0,6 °C 90 % 1005,7 hPa 0,0 l/m² 0 min 0 min 90 W/m² 0,0 km/h (0 Bft) 98,04 %
08.01.2026 14:34 3,0 °C 3,3 °C -0,6 °C 90 % 1005,7 hPa 0,2 l/m² 0 min 0 min 96 W/m² 0,0 km/h (0 Bft) 97,83 %
08.01.2026 14:36 3,1 °C 3,3 °C -0,6 °C 90 % 1005,7 hPa 0,0 l/m² 0 min 0 min 89 W/m² 0,0 km/h (0 Bft) 90,70 %
08.01.2026 14:38 3,1 °C 3,3 °C -0,6 °C 91 % 1005,7 hPa 0,0 l/m² 0 min 0 min 84 W/m² 0,0 km/h (0 Bft) 94,12 %
08.01.2026 14:40 3,1 °C 3,3 °C -0,6 °C 91 % 1005,7 hPa 0,0 l/m² 0 min 0 min 81 W/m² 0,0 km/h (0 Bft) 97,87 %
08.01.2026 14:42 3,1 °C 3,3 °C -0,6 °C 91 % 1005,8 hPa 0,0 l/m² 0 min 0 min 73 W/m² 0,0 km/h (0 Bft) 97,87 %
08.01.2026 14:44 3,1 °C 3,3 °C -0,6 °C 91 % 1005,7 hPa 0,0 l/m² 0 min 0 min 66 W/m² 0,0 km/h (0 Bft) 97,67 %
08.01.2026 14:46 3,1 °C 3,3 °C -0,6 °C 90 % 1005,7 hPa 0,0 l/m² 0 min 0 min 61 W/m² 0,0 km/h (0 Bft) 96,08 %
08.01.2026 14:48 3,2 °C 3,3 °C -0,6 °C 90 % 1005,7 hPa 0,0 l/m² 0 min 0 min 59 W/m² 0,0 km/h (0 Bft) 97,83 %
08.01.2026 14:50 3,2 °C 3,3 °C -0,6 °C 90 % 1005,6 hPa 0,0 l/m² 0 min 0 min 58 W/m² 0,0 km/h (0 Bft) 97,73 %
08.01.2026 14:52 3,2 °C 3,3 °C -0,6 °C 90 % 1005,6 hPa 0,2 l/m² 0 min 0 min 56 W/m² 0,0 km/h (0 Bft) 97,83 %
08.01.2026 14:54 3,2 °C 3,3 °C -0,6 °C 90 % 1005,6 hPa 0,0 l/m² 0 min 0 min 59 W/m² 0,0 km/h (0 Bft) 94,12 %
08.01.2026 14:56 3,2 °C 2,8 °C -0,6 °C 90 % 1005,6 hPa 0,0 l/m² 0 min 0 min 61 W/m² 0,0 km/h (0 Bft) 95,65 %
08.01.2026 14:58 3,2 °C 2,8 °C -0,6 °C 90 % 1005,5 hPa 0,0 l/m² 0 min 0 min 63 W/m² 0,0 km/h (0 Bft) 97,67 %
08.01.2026 15:00 3,2 °C 2,8 °C -0,6 °C 90 % 1005,5 hPa 0,0 l/m² 0 min 0 min 62 W/m² 0,0 km/h (0 Bft) 100,00 %
08.01.2026 15:02 3,2 °C 3,3 °C -0,6 °C 90 % 1005,6 hPa 0,2 l/m² 0 min 0 min 56 W/m² 0,0 km/h (0 Bft) 100,00 %
08.01.2026 15:04 3,2 °C 3,3 °C -0,6 °C 90 % 1005,5 hPa 0,0 l/m² 0 min 0 min 53 W/m² 0,0 km/h (0 Bft) 97,56 %
08.01.2026 15:06 3,2 °C 2,8 °C -0,6 °C 90 % 1005,5 hPa 0,0 l/m² 0 min 0 min 50 W/m² 0,0 km/h (0 Bft) 100,00 %
08.01.2026 15:08 3,2 °C 2,8 °C -0,6 °C 90 % 1005,4 hPa 0,0 l/m² 0 min 0 min 48 W/m² 0,0 km/h (0 Bft) 100,00 %
08.01.2026 15:10 3,2 °C 2,8 °C -1,1 °C 90 % 1005,4 hPa 0,0 l/m² 0 min 0 min 49 W/m² 0,0 km/h (0 Bft) 98,11 %
08.01.2026 15:12 3,2 °C 2,8 °C -0,6 °C 90 % 1005,4 hPa 0,0 l/m² 0 min 0 min 52 W/m² 0,0 km/h (0 Bft) 97,87 %
08.01.2026 15:14 3,2 °C 2,8 °C -1,1 °C 90 % 1005,3 hPa 0,0 l/m² 0 min 0 min 55 W/m² 0,0 km/h (0 Bft) 95,65 %
08.01.2026 15:16 3,2 °C 2,8 °C -0,6 °C 90 % 1005,3 hPa 0,0 l/m² 0 min 0 min 54 W/m² 0,0 km/h (0 Bft) 97,62 %
08.01.2026 15:18 3,2 °C 2,8 °C -1,1 °C 90 % 1005,3 hPa 0,2 l/m² 0 min 0 min 52 W/m² 0,0 km/h (0 Bft) 92,50 %
08.01.2026 15:20 3,2 °C 2,8 °C -1,1 °C 90 % 1005,2 hPa 0,0 l/m² 0 min 0 min 50 W/m² 0,0 km/h (0 Bft) 94,92 %
08.01.2026 15:22 3,2 °C 2,8 °C -1,1 °C 90 % 1005,3 hPa 0,0 l/m² 0 min 0 min 48 W/m² 0,0 km/h (0 Bft) 97,83 %
08.01.2026 15:24 3,2 °C 2,8 °C -1,1 °C 90 % 1005,3 hPa 0,0 l/m² 0 min 0 min 46 W/m² 0,0 km/h (0 Bft) 97,78 %
08.01.2026 15:26 3,2 °C 2,8 °C -1,1 °C 90 % 1005,3 hPa 0,0 l/m² 0 min 0 min 40 W/m² 0,0 km/h (0 Bft) 94,74 %
08.01.2026 15:28 3,2 °C 2,8 °C -1,1 °C 90 % 1005,3 hPa 0,0 l/m² 0 min 0 min 38 W/m² 0,0 km/h (0 Bft) 96,55 %
08.01.2026 15:30 3,2 °C 2,8 °C -1,1 °C 90 % 1005,3 hPa 0,0 l/m² 0 min 0 min 37 W/m² 0,0 km/h (0 Bft) 97,78 %
08.01.2026 15:32 3,2 °C 2,8 °C -1,1 °C 90 % 1005,3 hPa 0,2 l/m² 0 min 0 min 39 W/m² 0,0 km/h (0 Bft) 97,96 %
08.01.2026 15:34 3,2 °C 2,8 °C -1,1 °C 90 % 1005,2 hPa 0,0 l/m² 0 min 0 min 40 W/m² 0,0 km/h (0 Bft) 97,87 %
08.01.2026 15:36 3,2 °C 2,8 °C -1,1 °C 90 % 1005,2 hPa 0,0 l/m² 0 min 0 min 40 W/m² 0,0 km/h (0 Bft) 93,62 %
08.01.2026 15:38 3,2 °C 2,8 °C -1,1 °C 90 % 1005,2 hPa 0,0 l/m² 0 min 0 min 39 W/m² 0,0 km/h (0 Bft) 95,56 %
08.01.2026 15:40 3,2 °C 2,8 °C -1,1 °C 90 % 1005,2 hPa 0,0 l/m² 0 min 0 min 36 W/m² 0,0 km/h (0 Bft) 95,45 %
08.01.2026 15:42 3,2 °C 2,8 °C -1,1 °C 90 % 1005,2 hPa 0,0 l/m² 0 min 0 min 35 W/m² 0,0 km/h (0 Bft) 94,87 %
08.01.2026 15:44 3,2 °C 2,8 °C -1,1 °C 90 % 1005,1 hPa 0,0 l/m² 0 min 0 min 33 W/m² 0,0 km/h (0 Bft) 95,74 %
08.01.2026 15:46 3,2 °C 2,8 °C -1,1 °C 90 % 1005,2 hPa 0,0 l/m² 0 min 0 min 31 W/m² 0,0 km/h (0 Bft) 96,23 %
08.01.2026 15:48 3,2 °C 2,8 °C -1,1 °C 90 % 1005,1 hPa 0,0 l/m² 0 min 0 min 26 W/m² 0,0 km/h (0 Bft) 92,45 %
08.01.2026 15:50 3,2 °C 2,8 °C -1,1 °C 90 % 1005,1 hPa 0,0 l/m² 0 min 0 min 22 W/m² 0,0 km/h (0 Bft) 97,83 %
08.01.2026 15:52 3,2 °C 2,8 °C -1,1 °C 90 % 1005,1 hPa 0,2 l/m² 0 min 0 min 20 W/m² 0,0 km/h (0 Bft) 97,83 %
08.01.2026 15:54 3,2 °C 2,8 °C -1,1 °C 90 % 1005,0 hPa 0,0 l/m² 0 min 0 min 19 W/m² 0,0 km/h (0 Bft) 97,83 %
08.01.2026 15:56 3,2 °C 2,8 °C -1,1 °C 91 % 1005,0 hPa 0,0 l/m² 0 min 0 min 18 W/m² 0,0 km/h (0 Bft) 97,78 %
08.01.2026 15:58 3,3 °C 2,8 °C -1,1 °C 91 % 1004,9 hPa 0,0 l/m² 0 min 0 min 18 W/m² 0,0 km/h (0 Bft) 95,74 %
08.01.2026 16:00 3,2 °C 2,8 °C -1,1 °C 90 % 1004,9 hPa 0,0 l/m² 0 min 0 min 19 W/m² 0,0 km/h (0 Bft) 97,78 %
08.01.2026 16:02 3,2 °C 2,8 °C -1,1 °C 90 % 1004,9 hPa 0,0 l/m² 0 min 0 min 21 W/m² 0,0 km/h (0 Bft) 98,08 %
08.01.2026 16:04 3,2 °C 2,8 °C -1,1 °C 90 % 1004,8 hPa 0,0 l/m² 0 min 0 min 22 W/m² 0,0 km/h (0 Bft) 97,87 %
08.01.2026 16:06 3,2 °C 2,2 °C -1,1 °C 90 % 1004,8 hPa 0,0 l/m² 0 min 0 min 23 W/m² 0,0 km/h (0 Bft) 95,56 %
08.01.2026 16:08 3,1 °C 2,2 °C -1,1 °C 90 % 1004,8 hPa 0,0 l/m² 0 min 0 min 23 W/m² 0,0 km/h (0 Bft) 95,74 %
08.01.2026 16:10 3,1 °C 2,2 °C -1,1 °C 90 % 1004,8 hPa 0,0 l/m² 0 min 0 min 22 W/m² 0,0 km/h (0 Bft) 97,73 %
08.01.2026 16:12 3,1 °C 2,2 °C -1,1 °C 90 % 1004,8 hPa 0,0 l/m² 0 min 0 min 21 W/m² 0,0 km/h (0 Bft) 98,04 %
08.01.2026 16:14 3,1 °C 2,2 °C -1,1 °C 90 % 1004,7 hPa 0,2 l/m² 0 min 0 min 19 W/m² 0,0 km/h (0 Bft) 97,87 %
08.01.2026 16:16 3,1 °C 2,2 °C -1,1 °C 90 % 1004,7 hPa 0,0 l/m² 0 min 0 min 18 W/m² 3,2 km/h (1 Bft) 97,78 %
08.01.2026 16:18 3,1 °C 2,2 °C -1,1 °C 90 % 1004,7 hPa 0,0 l/m² 0 min 0 min 17 W/m² 0,0 km/h (0 Bft) 97,73 %
08.01.2026 16:20 3,1 °C 2,2 °C -1,1 °C 90 % 1004,7 hPa 0,0 l/m² 0 min 0 min 15 W/m² 0,0 km/h (0 Bft) 100,00 %
08.01.2026 16:22 3,1 °C 2,2 °C -1,1 °C 90 % 1004,7 hPa 0,0 l/m² 0 min 0 min 13 W/m² 3,2 km/h (1 Bft) 100,00 %
08.01.2026 16:24 3,0 °C 2,2 °C -1,1 °C 90 % 1004,7 hPa 0,0 l/m² 0 min 0 min 11 W/m² 3,2 km/h (1 Bft) 100,00 %
08.01.2026 16:26 3,0 °C 2,2 °C -1,1 °C 90 % 1004,7 hPa 0,0 l/m² 0 min 0 min 10 W/m² 3,2 km/h (1 Bft) 100,00 %
08.01.2026 16:28 3,0 °C 2,2 °C -1,1 °C 90 % 1004,7 hPa 0,0 l/m² 0 min 0 min 8 W/m² 6,4 km/h (2 Bft) 100,00 %
08.01.2026 16:30 2,9 °C 2,2 °C -1,1 °C 90 % 1004,6 hPa 0,0 l/m² 0 min 0 min 6 W/m² 3,2 km/h (1 Bft) 97,30 %
08.01.2026 16:32 2,9 °C 2,2 °C -1,1 °C 91 % 1004,7 hPa 0,0 l/m² 0 min 0 min 5 W/m² 6,4 km/h (2 Bft) 98,31 %
08.01.2026 16:34 2,9 °C 2,2 °C -1,1 °C 91 % 1004,6 hPa 0,0 l/m² 0 min 0 min 4 W/m² 3,2 km/h (1 Bft) 100,00 %
08.01.2026 16:36 2,9 °C 2,2 °C -1,1 °C 91 % 1004,6 hPa 0,0 l/m² 0 min 0 min 0 W/m² 6,4 km/h (2 Bft) 100,00 %
08.01.2026 16:38 2,9 °C 2,2 °C -1,1 °C 91 % 1004,5 hPa 0,0 l/m² 0 min 0 min 0 W/m² 6,4 km/h (2 Bft) 100,00 %
08.01.2026 16:40 2,9 °C 2,2 °C -1,1 °C 91 % 1004,6 hPa 0,0 l/m² 0 min 0 min 0 W/m² 3,2 km/h (1 Bft) 100,00 %
08.01.2026 16:42 2,9 °C 2,2 °C -1,1 °C 91 % 1004,5 hPa 0,0 l/m² 0 min 0 min 0 W/m² 3,2 km/h (1 Bft) 100,00 %
08.01.2026 16:44 2,8 °C 2,2 °C -1,1 °C 91 % 1004,5 hPa 0,0 l/m² 0 min 0 min 0 W/m² 6,4 km/h (2 Bft) 100,00 %
08.01.2026 16:46 2,8 °C 2,2 °C -1,1 °C 91 % 1004,4 hPa 0,2 l/m² 0 min 0 min 0 W/m² 12,9 km/h (3 Bft) 100,00 %
08.01.2026 16:48 2,8 °C 2,2 °C -1,1 °C 91 % 1004,4 hPa 0,0 l/m² 0 min 0 min 0 W/m² 3,2 km/h (1 Bft) 78,95 %
08.01.2026 16:50 2,8 °C 2,2 °C -1,1 °C 91 % 1004,3 hPa 0,0 l/m² 0 min 0 min 0 W/m² 6,4 km/h (2 Bft) 79,31 %
08.01.2026 16:52 2,8 °C 2,2 °C -1,1 °C 91 % 1004,4 hPa 0,0 l/m² 0 min 0 min 0 W/m² 6,4 km/h (2 Bft) 100,00 %
08.01.2026 16:54 2,8 °C 2,2 °C -1,1 °C 91 % 1004,4 hPa 0,0 l/m² 0 min 0 min 0 W/m² 12,9 km/h (3 Bft) 100,00 %
08.01.2026 16:56 2,8 °C 2,2 °C -1,1 °C 91 % 1004,3 hPa 0,0 l/m² 0 min 0 min 0 W/m² 12,9 km/h (3 Bft) 100,00 %
08.01.2026 16:58 2,7 °C 2,2 °C -1,1 °C 91 % 1004,3 hPa 0,0 l/m² 0 min 0 min 0 W/m² 12,9 km/h (3 Bft) 100,00 %
08.01.2026 17:00 2,7 °C 2,2 °C -1,1 °C 91 % 1004,1 hPa 0,0 l/m² 0 min 0 min 0 W/m² 6,4 km/h (2 Bft) 95,00 %
08.01.2026 17:02 2,7 °C 2,2 °C -1,1 °C 92 % 1004,1 hPa 0,0 l/m² 0 min 0 min 0 W/m² 6,4 km/h (2 Bft) 96,55 %
08.01.2026 17:04 2,7 °C 2,2 °C -1,1 °C 91 % 1004,1 hPa 0,0 l/m² 0 min 0 min 0 W/m² 12,9 km/h (3 Bft) 97,67 %
08.01.2026 17:06 2,7 °C 2,2 °C -1,1 °C 91 % 1004,0 hPa 0,0 l/m² 0 min 0 min 0 W/m² 6,4 km/h (2 Bft) 98,04 %
08.01.2026 17:08 2,7 °C 2,2 °C -1,1 °C 92 % 1004,0 hPa 0,0 l/m² 0 min 0 min 0 W/m² 6,4 km/h (2 Bft) 95,65 %
08.01.2026 17:10 2,7 °C 2,2 °C -1,1 °C 92 % 1004,0 hPa 0,2 l/m² 0 min 0 min 0 W/m² 16,1 km/h (3 Bft) 97,62 %
08.01.2026 17:12 2,7 °C 2,2 °C -1,1 °C 92 % 1004,1 hPa 0,0 l/m² 0 min 0 min 0 W/m² 6,4 km/h (2 Bft) 92,31 %
08.01.2026 17:14 2,7 °C 2,2 °C -1,1 °C 92 % 1004,1 hPa 0,0 l/m² 0 min 0 min 0 W/m² 3,2 km/h (1 Bft) 93,33 %
08.01.2026 17:16 2,7 °C 2,2 °C -1,1 °C 92 % 1004,1 hPa 0,0 l/m² 0 min 0 min 0 W/m² 3,2 km/h (1 Bft) 94,59 %
08.01.2026 17:18 2,7 °C 2,2 °C -1,1 °C 92 % 1004,1 hPa 0,0 l/m² 0 min 0 min 0 W/m² 3,2 km/h (1 Bft) 96,61 %
08.01.2026 17:20 2,7 °C 2,2 °C -1,7 °C 92 % 1004,1 hPa 0,0 l/m² 0 min 0 min 0 W/m² 3,2 km/h (1 Bft) 93,18 %
08.01.2026 17:22 2,7 °C 2,2 °C -1,7 °C 92 % 1004,1 hPa 0,0 l/m² 0 min 0 min 0 W/m² 3,2 km/h (1 Bft) 94,74 %
08.01.2026 17:24 2,6 °C 2,2 °C -1,7 °C 92 % 1004,1 hPa 0,0 l/m² 0 min 0 min 0 W/m² 3,2 km/h (1 Bft) 94,83 %
08.01.2026 17:26 2,6 °C 2,2 °C -1,7 °C 92 % 1004,1 hPa 0,0 l/m² 0 min 0 min 0 W/m² 6,4 km/h (2 Bft) 97,78 %
08.01.2026 17:28 2,6 °C 2,2 °C -1,7 °C 92 % 1004,1 hPa 0,0 l/m² 0 min 0 min 0 W/m² 12,9 km/h (3 Bft) 94,59 %
08.01.2026 17:30 2,6 °C 2,2 °C -1,7 °C 92 % 1004,0 hPa 0,0 l/m² 0 min 0 min 0 W/m² 9,7 km/h (2 Bft) 91,53 %
08.01.2026 17:32 2,6 °C 2,2 °C -1,7 °C 92 % 1004,0 hPa 0,0 l/m² 0 min 0 min 0 W/m² 6,4 km/h (2 Bft) 95,24 %
08.01.2026 17:34 2,6 °C 2,2 °C -1,7 °C 92 % 1003,9 hPa 0,0 l/m² 0 min 0 min 0 W/m² 12,9 km/h (3 Bft) 96,08 %
08.01.2026 17:36 2,6 °C 2,2 °C -1,7 °C 92 % 1003,9 hPa 0,0 l/m² 0 min 0 min 0 W/m² 6,4 km/h (2 Bft) 93,33 %
08.01.2026 17:38 2,6 °C 2,2 °C -1,1 °C 92 % 1003,8 hPa 0,0 l/m² 0 min 0 min 0 W/m² 16,1 km/h (3 Bft) 93,02 %
08.01.2026 17:40 2,6 °C 2,2 °C -1,1 °C 92 % 1003,8 hPa 0,0 l/m² 0 min 0 min 0 W/m² 9,7 km/h (2 Bft) 94,34 %
08.01.2026 17:42 2,6 °C 2,2 °C -1,1 °C 92 % 1003,8 hPa 0,2 l/m² 0 min 0 min 0 W/m² 12,9 km/h (3 Bft) 95,45 %
08.01.2026 17:44 2,6 °C 2,2 °C -1,1 °C 92 % 1003,8 hPa 0,0 l/m² 0 min 0 min 0 W/m² 16,1 km/h (3 Bft) 95,65 %
08.01.2026 17:46 2,6 °C 2,2 °C -1,1 °C 92 % 1003,7 hPa 0,0 l/m² 0 min 0 min 0 W/m² 12,9 km/h (3 Bft) 94,00 %
08.01.2026 17:48 2,6 °C 2,2 °C -1,1 °C 92 % 1003,7 hPa 0,0 l/m² 0 min 0 min 0 W/m² 12,9 km/h (3 Bft) 97,83 %
08.01.2026 17:50 2,6 °C 2,2 °C -1,1 °C 92 % 1003,7 hPa 0,0 l/m² 0 min 0 min 0 W/m² 6,4 km/h (2 Bft) 80,95 %
08.01.2026 17:52 2,6 °C 2,2 °C -1,1 °C 92 % 1003,7 hPa 0,0 l/m² 0 min 0 min 0 W/m² 16,1 km/h (3 Bft) 92,45 %
08.01.2026 17:54 2,6 °C 2,2 °C -1,1 °C 92 % 1003,6 hPa 0,0 l/m² 0 min 0 min 0 W/m² 6,4 km/h (2 Bft) 88,37 %
08.01.2026 17:56 2,6 °C 2,2 °C -1,1 °C 92 % 1003,6 hPa 0,0 l/m² 0 min 0 min 0 W/m² 12,9 km/h (3 Bft) 92,16 %
08.01.2026 17:58 2,6 °C 2,2 °C -1,1 °C 93 % 1003,6 hPa 0,0 l/m² 0 min 0 min 0 W/m² 12,9 km/h (3 Bft) 93,18 %
08.01.2026 18:00 2,6 °C 2,2 °C -1,1 °C 93 % 1003,5 hPa 0,0 l/m² 0 min 0 min 0 W/m² 12,9 km/h (3 Bft) 100,00 %
08.01.2026 18:02 2,5 °C 2,2 °C -1,1 °C 93 % 1003,5 hPa 0,0 l/m² 0 min 0 min 0 W/m² 12,9 km/h (3 Bft) 96,23 %
08.01.2026 18:04 2,5 °C 1,7 °C -1,7 °C 93 % 1003,5 hPa 0,2 l/m² 0 min 0 min 0 W/m² 16,1 km/h (3 Bft) 85,37 %
08.01.2026 18:10 2,4 °C 1,7 °C -1,7 °C 93 % 1003,3 hPa 0,0 l/m² 0 min 0 min 0 W/m² 12,9 km/h (3 Bft) 82,88 %
08.01.2026 18:12 2,4 °C 1,7 °C -1,7 °C 93 % 1003,3 hPa 0,0 l/m² 0 min 0 min 0 W/m² 12,9 km/h (3 Bft) 90,91 %
08.01.2026 18:14 2,4 °C 1,7 °C -1,7 °C 93 % 1003,2 hPa 0,0 l/m² 0 min 0 min 0 W/m² 16,1 km/h (3 Bft) 97,37 %
08.01.2026 18:16 2,4 °C 1,7 °C -1,7 °C 93 % 1003,2 hPa 0,0 l/m² 0 min 0 min 0 W/m² 16,1 km/h (3 Bft) 96,61 %
08.01.2026 18:18 2,4 °C 1,7 °C -1,7 °C 93 % 1003,2 hPa 0,0 l/m² 0 min 0 min 0 W/m² 12,9 km/h (3 Bft) 95,56 %
08.01.2026 18:20 2,4 °C 1,7 °C -1,7 °C 93 % 1003,2 hPa 0,0 l/m² 0 min 0 min 0 W/m² 6,4 km/h (2 Bft) 94,59 %
08.01.2026 18:22 2,4 °C 1,7 °C -1,7 °C 93 % 1003,1 hPa 0,0 l/m² 0 min 0 min 0 W/m² 12,9 km/h (3 Bft) 94,83 %
08.01.2026 18:24 2,4 °C 1,7 °C -1,7 °C 93 % 1003,1 hPa 0,0 l/m² 0 min 0 min 0 W/m² 16,1 km/h (3 Bft) 92,86 %
08.01.2026 18:26 2,4 °C 1,7 °C -1,7 °C 93 % 1003,0 hPa 0,0 l/m² 0 min 0 min 0 W/m² 19,3 km/h (3 Bft) 98,08 %
08.01.2026 18:28 2,4 °C 1,7 °C -1,7 °C 93 % 1003,0 hPa 0,0 l/m² 0 min 0 min 0 W/m² 16,1 km/h (3 Bft) 95,65 %
08.01.2026 18:30 2,4 °C 1,7 °C -1,7 °C 93 % 1002,9 hPa 0,0 l/m² 0 min 0 min 0 W/m² 6,4 km/h (2 Bft) 93,02 %
08.01.2026 18:32 2,3 °C 1,7 °C -1,7 °C 93 % 1002,9 hPa 0,0 l/m² 0 min 0 min 0 W/m² 19,3 km/h (3 Bft) 92,16 %
08.01.2026 18:34 2,3 °C 1,7 °C -1,7 °C 93 % 1002,8 hPa 0,0 l/m² 0 min 0 min 0 W/m² 12,9 km/h (3 Bft) 82,61 %
08.01.2026 18:36 2,3 °C 1,7 °C -1,7 °C 93 % 1002,8 hPa 0,2 l/m² 0 min 0 min 0 W/m² 16,1 km/h (3 Bft) 89,36 %
08.01.2026 18:38 2,3 °C 1,7 °C -1,7 °C 93 % 1002,8 hPa 0,0 l/m² 0 min 0 min 0 W/m² 19,3 km/h (3 Bft) 86,05 %
08.01.2026 18:40 2,3 °C 1,7 °C -1,7 °C 93 % 1002,7 hPa 0,0 l/m² 0 min 0 min 0 W/m² 19,3 km/h (3 Bft) 96,15 %
08.01.2026 18:42 2,3 °C 1,7 °C -1,7 °C 93 % 1002,7 hPa 0,0 l/m² 0 min 0 min 0 W/m² 12,9 km/h (3 Bft) 97,78 %
08.01.2026 18:44 2,3 °C 1,7 °C -1,7 °C 93 % 1002,7 hPa 0,0 l/m² 0 min 0 min 0 W/m² 16,1 km/h (3 Bft) 96,08 %
08.01.2026 18:46 2,3 °C 1,7 °C -1,7 °C 93 % 1002,6 hPa 0,0 l/m² 0 min 0 min 0 W/m² 12,9 km/h (3 Bft) 97,14 %
08.01.2026 18:48 2,3 °C 1,7 °C -1,7 °C 93 % 1002,5 hPa 0,0 l/m² 0 min 0 min 0 W/m² 6,4 km/h (2 Bft) 97,87 %
08.01.2026 18:50 2,3 °C 1,7 °C -1,7 °C 93 % 1002,4 hPa 0,0 l/m² 0 min 0 min 0 W/m² 19,3 km/h (3 Bft) 97,87 %
08.01.2026 18:52 2,3 °C 1,7 °C -1,7 °C 93 % 1002,4 hPa 0,0 l/m² 0 min 0 min 0 W/m² 16,1 km/h (3 Bft) 98,18 %
08.01.2026 18:54 2,3 °C 1,7 °C -1,7 °C 93 % 1002,4 hPa 0,0 l/m² 0 min 0 min 0 W/m² 12,9 km/h (3 Bft) 100,00 %
08.01.2026 18:56 2,3 °C 1,7 °C -1,7 °C 93 % 1002,3 hPa 0,0 l/m² 0 min 0 min 0 W/m² 12,9 km/h (3 Bft) 97,22 %
08.01.2026 18:58 2,3 °C 1,7 °C -1,7 °C 93 % 1002,3 hPa 0,0 l/m² 0 min 0 min 0 W/m² 12,9 km/h (3 Bft) 97,83 %
08.01.2026 19:00 2,3 °C 1,7 °C -1,7 °C 93 % 1002,3 hPa 0,2 l/m² 0 min 0 min 0 W/m² 12,9 km/h (3 Bft) 98,31 %
08.01.2026 19:02 2,2 °C 1,7 °C -1,7 °C 93 % 1002,3 hPa 0,0 l/m² 0 min 0 min 0 W/m² 16,1 km/h (3 Bft) 97,14 %
08.01.2026 19:04 2,2 °C 1,7 °C -1,7 °C 93 % 1002,2 hPa 0,0 l/m² 0 min 0 min 0 W/m² 12,9 km/h (3 Bft) 100,00 %
08.01.2026 19:08 2,2 °C 1,7 °C -1,7 °C 93 % 1002,1 hPa 0,0 l/m² 0 min 0 min 0 W/m² 19,3 km/h (3 Bft) 95,10 %
08.01.2026 19:10 2,2 °C 1,7 °C -1,7 °C 93 % 1002,1 hPa 0,0 l/m² 0 min 0 min 0 W/m² 16,1 km/h (3 Bft) 97,37 %
08.01.2026 19:12 2,2 °C 1,7 °C -1,7 °C 93 % 1002,0 hPa 0,0 l/m² 0 min 0 min 0 W/m² 12,9 km/h (3 Bft) 93,62 %
08.01.2026 19:16 2,2 °C 1,7 °C -1,7 °C 94 % 1002,0 hPa 0,0 l/m² 0 min 0 min 0 W/m² 19,3 km/h (3 Bft) 96,81 %
08.01.2026 19:18 2,2 °C 1,7 °C -1,7 °C 94 % 1002,0 hPa 0,0 l/m² 0 min 0 min 0 W/m² 19,3 km/h (3 Bft) 98,11 %
08.01.2026 19:20 2,2 °C 1,7 °C -1,7 °C 94 % 1002,0 hPa 0,0 l/m² 0 min 0 min 0 W/m² 16,1 km/h (3 Bft) 97,56 %
08.01.2026 19:22 2,2 °C 1,7 °C -1,7 °C 94 % 1001,9 hPa 0,0 l/m² 0 min 0 min 0 W/m² 12,9 km/h (3 Bft) 98,15 %
08.01.2026 19:24 2,2 °C 1,7 °C -1,7 °C 94 % 1001,9 hPa 0,0 l/m² 0 min 0 min 0 W/m² 22,5 km/h (4 Bft) 98,00 %
08.01.2026 19:26 2,1 °C 1,7 °C -1,7 °C 94 % 1001,8 hPa 0,0 l/m² 0 min 0 min 0 W/m² 12,9 km/h (3 Bft) 53,49 %
08.01.2026 19:28 2,1 °C 1,7 °C -1,7 °C 94 % 1001,7 hPa 0,0 l/m² 0 min 0 min 0 W/m² 12,9 km/h (3 Bft) 95,24 %
08.01.2026 19:30 2,1 °C 1,7 °C -1,7 °C 94 % 1001,7 hPa 0,2 l/m² 0 min 0 min 0 W/m² 19,3 km/h (3 Bft) 96,08 %
08.01.2026 19:32 2,1 °C 1,7 °C -1,7 °C 94 % 1001,7 hPa 0,0 l/m² 0 min 0 min 0 W/m² 19,3 km/h (3 Bft) 95,24 %
08.01.2026 19:34 2,1 °C 1,7 °C -1,7 °C 94 % 1001,7 hPa 0,0 l/m² 0 min 0 min 0 W/m² 16,1 km/h (3 Bft) 98,00 %
08.01.2026 19:36 2,1 °C 1,7 °C -1,7 °C 94 % 1001,7 hPa 0,0 l/m² 0 min 0 min 0 W/m² 16,1 km/h (3 Bft) 97,87 %
08.01.2026 19:38 2,1 °C 1,7 °C -1,7 °C 94 % 1001,6 hPa 0,0 l/m² 0 min 0 min 0 W/m² 16,1 km/h (3 Bft) 97,83 %
08.01.2026 19:40 2,1 °C 1,7 °C -1,7 °C 94 % 1001,6 hPa 0,0 l/m² 0 min 0 min 0 W/m² 12,9 km/h (3 Bft) 100,00 %
08.01.2026 19:42 2,1 °C 1,7 °C -1,7 °C 94 % 1001,6 hPa 0,0 l/m² 0 min 0 min 0 W/m² 16,1 km/h (3 Bft) 100,00 %
08.01.2026 19:44 2,1 °C 1,7 °C -1,7 °C 94 % 1001,6 hPa 0,0 l/m² 0 min 0 min 0 W/m² 12,9 km/h (3 Bft) 97,83 %
08.01.2026 19:46 2,1 °C 1,7 °C -1,7 °C 94 % 1001,5 hPa 0,0 l/m² 0 min 0 min 0 W/m² 16,1 km/h (3 Bft) 100,00 %
08.01.2026 19:48 2,1 °C 1,7 °C -1,7 °C 94 % 1001,5 hPa 0,0 l/m² 0 min 0 min 0 W/m² 12,9 km/h (3 Bft) 98,11 %
08.01.2026 19:50 2,1 °C 1,7 °C -1,7 °C 94 % 1001,5 hPa 0,0 l/m² 0 min 0 min 0 W/m² 6,4 km/h (2 Bft) 97,87 %
08.01.2026 19:52 2,1 °C 1,7 °C -1,7 °C 94 % 1001,5 hPa 0,0 l/m² 0 min 0 min 0 W/m² 9,7 km/h (2 Bft) 97,92 %
08.01.2026 19:54 2,1 °C 1,7 °C -1,7 °C 94 % 1001,4 hPa 0,2 l/m² 0 min 0 min 0 W/m² 12,9 km/h (3 Bft) 97,50 %
08.01.2026 19:56 2,1 °C 1,7 °C -1,7 °C 94 % 1001,4 hPa 0,0 l/m² 0 min 0 min 0 W/m² 9,7 km/h (2 Bft) 98,08 %
08.01.2026 19:58 2,1 °C 1,7 °C -1,7 °C 94 % 1001,4 hPa 0,0 l/m² 0 min 0 min 0 W/m² 9,7 km/h (2 Bft) 97,56 %
08.01.2026 20:00 2,1 °C 1,7 °C -1,7 °C 94 % 1001,3 hPa 0,0 l/m² 0 min 0 min 0 W/m² 12,9 km/h (3 Bft) 98,31 %
08.01.2026 20:02 2,1 °C 1,7 °C -1,7 °C 94 % 1001,4 hPa 0,0 l/m² 0 min 0 min 0 W/m² 12,9 km/h (3 Bft) 100,00 %
08.01.2026 20:04 2,1 °C 1,7 °C -1,7 °C 94 % 1001,3 hPa 0,0 l/m² 0 min 2 min 0 W/m² 12,9 km/h (3 Bft) 95,83 %
08.01.2026 20:08 2,1 °C 1,1 °C -1,7 °C 94 % 1001,3 hPa 0,0 l/m² 0 min 4 min 0 W/m² 12,9 km/h (3 Bft) 97,53 %
08.01.2026 20:10 2,1 °C 1,1 °C -1,7 °C 94 % 1001,2 hPa 0,0 l/m² 0 min 2 min 0 W/m² 12,9 km/h (3 Bft) 95,74 %
08.01.2026 20:12 2,1 °C 1,1 °C -1,7 °C 94 % 1001,1 hPa 0,0 l/m² 0 min 0 min 0 W/m² 16,1 km/h (3 Bft) 94,92 %
08.01.2026 20:14 2,1 °C 1,1 °C -1,7 °C 94 % 1001,1 hPa 0,2 l/m² 0 min 2 min 0 W/m² 16,1 km/h (3 Bft) 97,67 %
08.01.2026 20:16 2,1 °C 1,1 °C -1,7 °C 94 % 1001,0 hPa 0,0 l/m² 0 min 2 min 0 W/m² 12,9 km/h (3 Bft) 97,44 %
08.01.2026 20:18 2,1 °C 1,1 °C -1,7 °C 95 % 1001,0 hPa 0,0 l/m² 0 min 2 min 0 W/m² 12,9 km/h (3 Bft) 96,55 %
08.01.2026 20:20 2,1 °C 1,1 °C -1,7 °C 95 % 1000,9 hPa 0,0 l/m² 0 min 0 min 0 W/m² 12,9 km/h (3 Bft) 95,56 %
08.01.2026 20:22 2,1 °C 1,1 °C -1,7 °C 95 % 1000,9 hPa 0,2 l/m² 0 min 2 min 0 W/m² 12,9 km/h (3 Bft) 97,67 %
08.01.2026 20:24 2,1 °C 1,1 °C -2,2 °C 95 % 1000,8 hPa 0,0 l/m² 0 min 2 min 0 W/m² 16,1 km/h (3 Bft) 95,12 %
08.01.2026 20:26 2,1 °C 1,1 °C -2,2 °C 95 % 1000,7 hPa 0,0 l/m² 0 min 2 min 0 W/m² 6,4 km/h (2 Bft) 85,11 %
08.01.2026 20:28 2,0 °C 1,1 °C -2,2 °C 95 % 1000,7 hPa 0,0 l/m² 0 min 2 min 0 W/m² 19,3 km/h (3 Bft) 81,03 %
08.01.2026 20:30 2,0 °C 1,1 °C -2,2 °C 95 % 1000,6 hPa 0,0 l/m² 0 min 0 min 0 W/m² 16,1 km/h (3 Bft) 93,18 %
08.01.2026 20:32 2,0 °C 1,1 °C -2,2 °C 95 % 1000,7 hPa 0,2 l/m² 0 min 2 min 0 W/m² 12,9 km/h (3 Bft) 97,78 %
08.01.2026 20:34 2,0 °C 1,1 °C -2,2 °C 95 % 1000,7 hPa 0,0 l/m² 0 min 2 min 0 W/m² 16,1 km/h (3 Bft) 95,00 %
08.01.2026 20:36 2,0 °C 1,1 °C -2,2 °C 95 % 1000,6 hPa 0,0 l/m² 0 min 2 min 0 W/m² 16,1 km/h (3 Bft) 96,55 %
08.01.2026 20:38 2,0 °C 1,1 °C -2,2 °C 95 % 1000,6 hPa 0,0 l/m² 0 min 2 min 0 W/m² 12,9 km/h (3 Bft) 93,75 %
08.01.2026 20:40 2,0 °C 1,1 °C -2,2 °C 95 % 1000,6 hPa 0,2 l/m² 0 min 2 min 0 W/m² 16,1 km/h (3 Bft) 89,13 %
08.01.2026 20:42 2,0 °C 1,1 °C -2,2 °C 95 % 1000,6 hPa 0,0 l/m² 0 min 2 min 0 W/m² 12,9 km/h (3 Bft) 95,65 %
08.01.2026 20:44 2,0 °C 1,1 °C -2,2 °C 95 % 1000,5 hPa 0,0 l/m² 0 min 2 min 0 W/m² 19,3 km/h (3 Bft) 91,30 %
08.01.2026 20:46 1,9 °C 1,1 °C -2,2 °C 95 % 1000,4 hPa 0,0 l/m² 0 min 2 min 0 W/m² 22,5 km/h (4 Bft) 93,18 %
08.01.2026 20:48 2,0 °C 1,1 °C -2,2 °C 95 % 1000,4 hPa 0,0 l/m² 0 min 0 min 0 W/m² 16,1 km/h (3 Bft) 87,50 %
08.01.2026 20:50 1,9 °C 1,1 °C -2,2 °C 95 % 1000,3 hPa 0,2 l/m² 0 min 0 min 0 W/m² 16,1 km/h (3 Bft) 93,62 %
08.01.2026 20:52 1,9 °C 1,1 °C -2,2 °C 95 % 1000,2 hPa 0,0 l/m² 0 min 0 min 0 W/m² 22,5 km/h (4 Bft) 93,62 %
08.01.2026 20:54 1,9 °C 1,1 °C -2,2 °C 95 % 1000,2 hPa 0,0 l/m² 0 min 0 min 0 W/m² 22,5 km/h (4 Bft) 91,23 %
08.01.2026 20:56 1,9 °C 1,1 °C -2,2 °C 95 % 1000,1 hPa 0,0 l/m² 0 min 0 min 0 W/m² 22,5 km/h (4 Bft) 97,73 %
08.01.2026 20:58 1,9 °C 1,1 °C -2,2 °C 95 % 1000,1 hPa 0,0 l/m² 0 min 2 min 0 W/m² 19,3 km/h (3 Bft) 92,31 %
08.01.2026 21:00 1,9 °C 1,1 °C -2,2 °C 95 % 1000,0 hPa 0,0 l/m² 0 min 0 min 0 W/m² 22,5 km/h (4 Bft) 96,61 %
08.01.2026 21:02 1,9 °C 1,1 °C -2,2 °C 95 % 999,9 hPa 0,0 l/m² 0 min 0 min 0 W/m² 16,1 km/h (3 Bft) 84,78 %
08.01.2026 21:04 1,9 °C 1,1 °C -2,2 °C 95 % 999,8 hPa 0,2 l/m² 0 min 0 min 0 W/m² 12,9 km/h (3 Bft) 93,18 %
08.01.2026 21:07 1,9 °C 1,1 °C -2,2 °C 96 % 999,7 hPa 0,0 l/m² 0 min 3 min 0 W/m² 19,3 km/h (3 Bft) 92,75 %
08.01.2026 21:12 1,9 °C 1,1 °C -2,2 °C 96 % 999,5 hPa 0,0 l/m² 0 min 0 min 0 W/m² 22,5 km/h (4 Bft) 95,71 %
08.01.2026 21:14 1,8 °C 1,1 °C -2,2 °C 95 % 999,5 hPa 0,0 l/m² 0 min 0 min 0 W/m² 12,9 km/h (3 Bft) 88,89 %
08.01.2026 21:16 1,8 °C 1,1 °C -2,2 °C 95 % 999,5 hPa 0,0 l/m² 0 min 0 min 0 W/m² 16,1 km/h (3 Bft) 93,48 %
08.01.2026 21:18 1,8 °C 1,1 °C -2,2 °C 95 % 999,5 hPa 0,0 l/m² 0 min 0 min 0 W/m² 16,1 km/h (3 Bft) 97,37 %
08.01.2026 21:20 1,8 °C 1,1 °C -2,2 °C 96 % 999,4 hPa 0,0 l/m² 0 min 0 min 0 W/m² 16,1 km/h (3 Bft) 95,74 %
08.01.2026 21:22 1,8 °C 1,1 °C -2,2 °C 96 % 999,3 hPa 0,0 l/m² 0 min 2 min 0 W/m² 16,1 km/h (3 Bft) 97,87 %
08.01.2026 21:24 1,8 °C 1,1 °C -2,2 °C 96 % 999,2 hPa 0,0 l/m² 0 min 0 min 0 W/m² 19,3 km/h (3 Bft) 97,87 %
08.01.2026 21:26 1,8 °C 1,1 °C -2,2 °C 96 % 999,2 hPa 0,0 l/m² 0 min 2 min 0 W/m² 16,1 km/h (3 Bft) 100,00 %
08.01.2026 21:28 1,8 °C 1,1 °C -2,2 °C 96 % 999,1 hPa 0,2 l/m² 0 min 2 min 0 W/m² 16,1 km/h (3 Bft) 94,44 %
08.01.2026 21:30 1,8 °C 1,1 °C -2,2 °C 96 % 999,1 hPa 0,0 l/m² 0 min 2 min 0 W/m² 25,7 km/h (4 Bft) 97,83 %
08.01.2026 21:32 1,8 °C 1,1 °C -2,2 °C 96 % 999,0 hPa 0,0 l/m² 0 min 2 min 0 W/m² 16,1 km/h (3 Bft) 100,00 %
08.01.2026 21:34 1,8 °C 1,1 °C -2,2 °C 96 % 998,8 hPa 0,0 l/m² 0 min 2 min 0 W/m² 16,1 km/h (3 Bft) 100,00 %
08.01.2026 21:36 1,8 °C 1,1 °C -2,2 °C 96 % 998,8 hPa 0,0 l/m² 0 min 2 min 0 W/m² 25,7 km/h (4 Bft) 100,00 %
08.01.2026 21:38 1,8 °C 1,1 °C -2,2 °C 96 % 998,8 hPa 0,0 l/m² 0 min 2 min 0 W/m² 19,3 km/h (3 Bft) 100,00 %
08.01.2026 21:40 1,8 °C 1,1 °C -2,2 °C 96 % 998,7 hPa 0,2 l/m² 0 min 2 min 0 W/m² 16,1 km/h (3 Bft) 96,43 %
08.01.2026 21:42 1,8 °C 1,1 °C -2,2 °C 96 % 998,6 hPa 0,0 l/m² 0 min 2 min 0 W/m² 19,3 km/h (3 Bft) 97,30 %
08.01.2026 21:44 1,8 °C 1,1 °C -2,2 °C 96 % 998,6 hPa 0,0 l/m² 0 min 2 min 0 W/m² 22,5 km/h (4 Bft) 100,00 %
08.01.2026 21:46 1,8 °C 1,1 °C -2,2 °C 96 % 998,5 hPa 0,0 l/m² 0 min 2 min 0 W/m² 16,1 km/h (3 Bft) 98,31 %
08.01.2026 21:48 1,8 °C 1,1 °C -2,2 °C 96 % 998,5 hPa 0,0 l/m² 0 min 2 min 0 W/m² 6,4 km/h (2 Bft) 100,00 %
08.01.2026 21:50 1,8 °C 1,1 °C -2,2 °C 96 % 998,4 hPa 0,0 l/m² 0 min 2 min 0 W/m² 12,9 km/h (3 Bft) 100,00 %
08.01.2026 21:52 1,8 °C 1,1 °C -2,2 °C 96 % 998,4 hPa 0,0 l/m² 0 min 0 min 0 W/m² 19,3 km/h (3 Bft) 100,00 %
08.01.2026 21:54 1,8 °C 1,1 °C -2,2 °C 96 % 998,3 hPa 0,2 l/m² 0 min 0 min 0 W/m² 19,3 km/h (3 Bft) 100,00 %
08.01.2026 21:56 1,8 °C 1,1 °C -2,2 °C 96 % 998,3 hPa 0,0 l/m² 0 min 0 min 0 W/m² 22,5 km/h (4 Bft) 57,45 %
08.01.2026 21:58 1,8 °C 1,1 °C -2,2 °C 96 % 998,2 hPa 0,0 l/m² 0 min 0 min 0 W/m² 19,3 km/h (3 Bft) 100,00 %
08.01.2026 22:00 1,8 °C 1,1 °C -2,2 °C 96 % 998,1 hPa 0,0 l/m² 0 min 2 min 0 W/m² 19,3 km/h (3 Bft) 100,00 %
08.01.2026 22:02 1,8 °C 1,1 °C -2,2 °C 96 % 998,1 hPa 0,0 l/m² 0 min 0 min 0 W/m² 12,9 km/h (3 Bft) 100,00 %
08.01.2026 22:04 1,7 °C 1,1 °C -2,2 °C 96 % 998,0 hPa 0,0 l/m² 0 min 2 min 0 W/m² 12,9 km/h (3 Bft) 100,00 %
08.01.2026 22:06 1,7 °C 1,1 °C -2,2 °C 96 % 997,9 hPa 0,0 l/m² 0 min 2 min 0 W/m² 19,3 km/h (3 Bft) 100,00 %
08.01.2026 22:08 1,7 °C 1,1 °C -2,2 °C 96 % 997,8 hPa 0,2 l/m² 0 min 0 min 0 W/m² 19,3 km/h (3 Bft) 100,00 %
08.01.2026 22:10 1,7 °C 1,1 °C -2,2 °C 96 % 997,8 hPa 0,0 l/m² 0 min 2 min 0 W/m² 19,3 km/h (3 Bft) 93,02 %
08.01.2026 22:12 1,7 °C 1,1 °C -2,2 °C 96 % 997,7 hPa 0,0 l/m² 0 min 2 min 0 W/m² 12,9 km/h (3 Bft) 97,50 %
08.01.2026 22:14 1,7 °C 1,1 °C -2,2 °C 96 % 997,6 hPa 0,0 l/m² 0 min 2 min 0 W/m² 22,5 km/h (4 Bft) 97,87 %
08.01.2026 22:16 1,7 °C 1,1 °C -2,2 °C 96 % 997,6 hPa 0,0 l/m² 0 min 2 min 0 W/m² 16,1 km/h (3 Bft) 98,28 %
08.01.2026 22:18 1,7 °C 1,1 °C -2,2 °C 96 % 997,5 hPa 0,0 l/m² 0 min 2 min 0 W/m² 19,3 km/h (3 Bft) 100,00 %
08.01.2026 22:20 1,7 °C 1,1 °C -2,2 °C 96 % 997,4 hPa 0,2 l/m² 0 min 2 min 0 W/m² 19,3 km/h (3 Bft) 100,00 %
08.01.2026 22:22 1,7 °C 1,1 °C -2,2 °C 96 % 997,4 hPa 0,0 l/m² 0 min 2 min 0 W/m² 16,1 km/h (3 Bft) 100,00 %
08.01.2026 22:24 1,7 °C 1,1 °C -2,2 °C 96 % 997,3 hPa 0,0 l/m² 0 min 2 min 0 W/m² 16,1 km/h (3 Bft) 100,00 %
08.01.2026 22:26 1,7 °C 1,1 °C -2,2 °C 96 % 997,3 hPa 0,2 l/m² 0 min 2 min 0 W/m² 16,1 km/h (3 Bft) 100,00 %
08.01.2026 22:28 1,7 °C 1,1 °C -2,2 °C 96 % 997,2 hPa 0,0 l/m² 0 min 2 min 0 W/m² 12,9 km/h (3 Bft) 100,00 %
08.01.2026 22:30 1,7 °C 1,1 °C -2,2 °C 96 % 997,2 hPa 0,0 l/m² 0 min 2 min 0 W/m² 12,9 km/h (3 Bft) 100,00 %
08.01.2026 22:32 1,7 °C 1,1 °C -2,2 °C 96 % 997,2 hPa 0,0 l/m² 0 min 2 min 0 W/m² 12,9 km/h (3 Bft) 98,31 %
08.01.2026 22:34 1,7 °C 1,1 °C -2,2 °C 96 % 997,1 hPa 0,0 l/m² 0 min 2 min 0 W/m² 16,1 km/h (3 Bft) 97,56 %
08.01.2026 22:36 1,7 °C 1,1 °C -2,2 °C 96 % 997,0 hPa 0,2 l/m² 0 min 2 min 0 W/m² 25,7 km/h (4 Bft) 97,56 %
08.01.2026 22:38 1,7 °C 1,1 °C -2,2 °C 97 % 996,9 hPa 0,0 l/m² 0 min 2 min 0 W/m² 19,3 km/h (3 Bft) 96,49 %
08.01.2026 22:40 1,7 °C 1,1 °C -2,2 °C 97 % 996,8 hPa 0,0 l/m² 0 min 2 min 0 W/m² 16,1 km/h (3 Bft) 100,00 %
08.01.2026 22:42 1,7 °C 1,1 °C -2,2 °C 97 % 996,8 hPa 0,2 l/m² 0 min 2 min 0 W/m² 16,1 km/h (3 Bft) 98,28 %
08.01.2026 22:44 1,7 °C 1,1 °C -2,2 °C 97 % 996,7 hPa 0,0 l/m² 0 min 2 min 0 W/m² 16,1 km/h (3 Bft) 100,00 %
08.01.2026 22:46 1,7 °C 1,1 °C -2,2 °C 97 % 996,7 hPa 0,0 l/m² 0 min 2 min 0 W/m² 16,1 km/h (3 Bft) 97,50 %
08.01.2026 22:48 1,7 °C 1,1 °C -2,2 °C 97 % 996,7 hPa 0,0 l/m² 0 min 2 min 0 W/m² 12,9 km/h (3 Bft) 98,21 %
08.01.2026 22:50 1,7 °C 1,1 °C -2,2 °C 97 % 996,5 hPa 0,2 l/m² 0 min 2 min 0 W/m² 16,1 km/h (3 Bft) 95,45 %
08.01.2026 22:52 1,7 °C 1,1 °C -2,2 °C 97 % 996,5 hPa 0,0 l/m² 0 min 2 min 0 W/m² 16,1 km/h (3 Bft) 100,00 %
08.01.2026 22:54 1,7 °C 1,1 °C -1,7 °C 97 % 996,4 hPa 0,0 l/m² 0 min 2 min 0 W/m² 22,5 km/h (4 Bft) 96,55 %
08.01.2026 22:56 1,7 °C 1,1 °C -1,7 °C 97 % 996,3 hPa 0,2 l/m² 0 min 2 min 0 W/m² 19,3 km/h (3 Bft) 97,67 %
08.01.2026 22:58 1,7 °C 1,1 °C -2,2 °C 97 % 996,2 hPa 0,0 l/m² 0 min 2 min 0 W/m² 16,1 km/h (3 Bft) 95,00 %
08.01.2026 23:00 1,7 °C 1,1 °C -2,2 °C 97 % 996,1 hPa 0,0 l/m² 0 min 2 min 0 W/m² 16,1 km/h (3 Bft) 96,55 %
08.01.2026 23:02 1,7 °C 1,1 °C -2,2 °C 97 % 996,0 hPa 0,0 l/m² 0 min 2 min 0 W/m² 19,3 km/h (3 Bft) 97,67 %
08.01.2026 23:04 1,7 °C 1,1 °C -2,2 °C 97 % 996,0 hPa 0,2 l/m² 0 min 2 min 0 W/m² 19,3 km/h (3 Bft) 94,87 %
08.01.2026 23:06 1,7 °C 1,1 °C -2,2 °C 97 % 995,8 hPa 0,0 l/m² 0 min 2 min 0 W/m² 22,5 km/h (4 Bft) 93,10 %
08.01.2026 23:08 1,7 °C 1,1 °C -2,2 °C 97 % 995,8 hPa 0,2 l/m² 0 min 2 min 0 W/m² 19,3 km/h (3 Bft) 88,89 %
08.01.2026 23:10 1,7 °C 1,1 °C -2,2 °C 97 % 995,8 hPa 0,0 l/m² 0 min 2 min 0 W/m² 22,5 km/h (4 Bft) 93,10 %
08.01.2026 23:12 1,7 °C 1,1 °C -1,7 °C 97 % 995,7 hPa 0,0 l/m² 0 min 2 min 0 W/m² 22,5 km/h (4 Bft) 91,11 %
08.01.2026 23:14 1,6 °C 1,1 °C -1,7 °C 97 % 995,7 hPa 0,0 l/m² 0 min 2 min 0 W/m² 16,1 km/h (3 Bft) 91,89 %
08.01.2026 23:16 1,7 °C 1,1 °C -1,7 °C 97 % 995,6 hPa 0,2 l/m² 0 min 2 min 0 W/m² 22,5 km/h (4 Bft) 93,22 %
08.01.2026 23:18 1,7 °C 1,1 °C -1,7 °C 97 % 995,5 hPa 0,0 l/m² 0 min 2 min 0 W/m² 25,7 km/h (4 Bft) 90,91 %
08.01.2026 23:20 1,7 °C 1,1 °C -1,7 °C 97 % 995,4 hPa 0,2 l/m² 0 min 2 min 0 W/m² 25,7 km/h (4 Bft) 89,47 %
08.01.2026 23:22 1,7 °C 1,1 °C -1,7 °C 97 % 995,3 hPa 0,0 l/m² 0 min 2 min 0 W/m² 25,7 km/h (4 Bft) 96,49 %
08.01.2026 23:24 1,7 °C 1,1 °C -1,7 °C 97 % 995,2 hPa 0,0 l/m² 0 min 2 min 0 W/m² 19,3 km/h (3 Bft) 94,59 %
08.01.2026 23:26 1,7 °C 1,1 °C -1,7 °C 97 % 995,2 hPa 0,0 l/m² 0 min 2 min 0 W/m² 22,5 km/h (4 Bft) 93,48 %
08.01.2026 23:28 1,7 °C 1,1 °C -1,7 °C 97 % 995,0 hPa 0,2 l/m² 0 min 2 min 0 W/m² 22,5 km/h (4 Bft) 96,43 %
08.01.2026 23:30 1,7 °C 1,1 °C -1,7 °C 97 % 995,1 hPa 0,0 l/m² 0 min 2 min 0 W/m² 19,3 km/h (3 Bft) 94,74 %
08.01.2026 23:32 1,7 °C 1,1 °C -1,7 °C 97 % 995,0 hPa 0,2 l/m² 0 min 2 min 0 W/m² 19,3 km/h (3 Bft) 93,22 %
08.01.2026 23:34 1,7 °C 1,1 °C -1,7 °C 97 % 994,8 hPa 0,0 l/m² 0 min 2 min 0 W/m² 29,0 km/h (5 Bft) 95,45 %
08.01.2026 23:36 1,7 °C 1,1 °C -1,7 °C 97 % 994,8 hPa 0,0 l/m² 0 min 2 min 0 W/m² 22,5 km/h (4 Bft) 94,74 %
08.01.2026 23:38 1,7 °C 1,1 °C -1,7 °C 97 % 994,8 hPa 0,2 l/m² 0 min 0 min 0 W/m² 22,5 km/h (4 Bft) 89,66 %
08.01.2026 23:40 1,7 °C 1,1 °C -1,7 °C 97 % 994,6 hPa 0,0 l/m² 0 min 2 min 0 W/m² 22,5 km/h (4 Bft) 97,67 %
08.01.2026 23:42 1,7 °C 1,1 °C -1,7 °C 97 % 994,6 hPa 0,2 l/m² 0 min 2 min 0 W/m² 19,3 km/h (3 Bft) 94,87 %
08.01.2026 23:44 1,7 °C 1,1 °C -1,7 °C 97 % 994,5 hPa 0,0 l/m² 0 min 2 min 0 W/m² 35,4 km/h (5 Bft) 96,43 %
08.01.2026 23:46 1,7 °C 1,1 °C -1,7 °C 97 % 994,5 hPa 0,2 l/m² 0 min 2 min 0 W/m² 22,5 km/h (4 Bft) 92,11 %
08.01.2026 23:48 1,7 °C 1,1 °C -1,7 °C 97 % 994,4 hPa 0,0 l/m² 0 min 2 min 0 W/m² 41,8 km/h (6 Bft) 96,55 %
08.01.2026 23:50 1,7 °C 1,1 °C -1,7 °C 97 % 994,3 hPa 0,2 l/m² 0 min 2 min 0 W/m² 16,1 km/h (3 Bft) 97,62 %
08.01.2026 23:52 1,7 °C 1,1 °C -1,7 °C 97 % 994,2 hPa 0,0 l/m² 0 min 2 min 0 W/m² 19,3 km/h (3 Bft) 97,50 %
08.01.2026 23:54 1,7 °C 1,1 °C -1,7 °C 97 % 994,1 hPa 0,0 l/m² 0 min 2 min 0 W/m² 29,0 km/h (5 Bft) 95,74 %
08.01.2026 23:56 1,7 °C 1,1 °C -1,7 °C 97 % 994,0 hPa 0,2 l/m² 0 min 2 min 0 W/m² 22,5 km/h (4 Bft) 98,21 %
08.01.2026 23:58 1,7 °C 1,1 °C -1,7 °C 97 % 993,9 hPa 0,2 l/m² 0 min 2 min 0 W/m² 19,3 km/h (3 Bft) 100,00 %
_ Min-Zeit 09:48 08:30 09:22 14:16 23:58 - - - - 08:14 00:02
Minimum _ -0,4 °C -1,1 °C -4,4 °C 90 % 993,9 hPa - - - - 0,0 km/h (0 Bft) 11,76 %
_ Max-Zeit 15:58 13:42 13:40 22:38 10:02 07:02 13:42 20:08 13:52 23:48 00:00
Maximum _ 3,3 °C 3,9 °C -0,6 °C 97 % 1007,7 hPa 0,2 l/m² 2 min 4 min 170 W/m² 41,8 km/h
O-SO (6 Bft)
100,00 %
Durchschnitt _ 1,5 °C 1,2 °C -2,4 °C 93 % 1004,7 hPa #12,5 l/m² #10 min. #3:05 h 75 W/m² 11,0 km/h (2 Bft) 96,34 %
© 2026 W. Hausmann